| time (UTC) | temp C | wind direction | speed KPH | gust KPH | rain 1hr cm | rain 24hr cm | rain mn cm | humidity % | barometer mb |
| 20260902224642 | 21 | 151 | 8.0 | 16.1 | 0.00 | 0.00 | 0.00 | 75 | 1016.2 |
| 20260902224545 | 21 | 213 | 9.7 | 14.5 | 0.00 | 0.00 | 0.00 | 75 | 1016.2 |
| 20260902224435 | 21 | 171 | 8.0 | 14.5 | 0.00 | 0.00 | 0.00 | 75 | 1016.3 |
| 20260902224357 | 21 | 93 | 4.8 | 14.5 | 0.00 | 0.00 | 0.00 | 75 | 1016.2 |
| 20260902224320 | 21 | 137 | 6.4 | 14.5 | 0.00 | 0.00 | 0.00 | 75 | 1016.3 |
| 20260902224225 | 21 | 175 | 8.0 | 14.5 | 0.00 | 0.00 | 0.00 | 75 | 1016.4 |
| 20260902224125 | 21 | 175 | 6.4 | 14.5 | 0.00 | 0.00 | 0.00 | 75 | 1016.4 |
| 20260902223929 | 21 | 136 | 3.2 | 14.5 | 0.00 | 0.00 | 0.00 | 75 | 1016.6 |
| 20260902223832 | 21 | 200 | 4.8 | 14.5 | 0.00 | 0.00 | 0.00 | 75 | 1016.6 |
| 20260902223737 | 21 | 235 | 4.8 | 14.5 | 0.00 | 0.00 | 0.00 | 75 | 1016.6 |
| 20260902223658 | 21 | 237 | 4.8 | 16.1 | 0.00 | 0.00 | 0.00 | 75 | 1016.6 |
| 20260902223622 | 21 | 248 | 3.2 | 16.1 | 0.00 | 0.00 | 0.00 | 75 | 1016.6 |
| 20260902223527 | 21 | 211 | 3.2 | 16.1 | 0.00 | 0.00 | 0.00 | 75 | 1016.5 |
| 20260902223432 | 21 | 205 | 3.2 | 16.1 | 0.00 | 0.00 | 0.00 | 75 | 1016.5 |
| 20260902223243 | 21 | 128 | 8.0 | 16.1 | 0.00 | 0.00 | 0.00 | 75 | 1016.4 |
| 20260902223156 | 21 | 161 | 6.4 | 16.1 | 0.00 | 0.00 | 0.00 | 75 | 1016.4 |
| 20260902223006 | 21 | 157 | 8.0 | 22.5 | 0.00 | 0.00 | 0.00 | 75 | 1016.2 |
| 20260902222929 | 21 | 194 | 8.0 | 22.5 | 0.00 | 0.00 | 0.00 | 75 | 1016.2 |
| 20260902222752 | 21 | 173 | 4.8 | 22.5 | 0.00 | 0.00 | 0.00 | 75 | 1016.1 |
| 20260902222724 | 21 | 142 | 4.8 | 22.5 | 0.00 | 0.00 | 0.00 | 75 | 1016.1 |
| 20260902222556 | 21 | 118 | 6.4 | 22.5 | 0.00 | 0.00 | 0.00 | 75 | 1016.1 |
| 20260902222511 | 21 | 156 | 8.0 | 22.5 | 0.00 | 0.00 | 0.00 | 75 | 1016.1 |
| 20260902222250 | 21 | 165 | 9.7 | 24.1 | 0.00 | 0.00 | 0.00 | 75 | 1016.3 |
| 20260902222152 | 21 | 223 | 8.0 | 24.1 | 0.00 | 0.00 | 0.00 | 75 | 1016.4 |
| 20260902222042 | 21 | 184 | 11.3 | 24.1 | 0.00 | 0.00 | 0.00 | 75 | 1016.4 |
| 20260902222002 | 21 | 125 | 9.7 | 24.1 | 0.00 | 0.00 | 0.00 | 75 | 1016.4 |
| 20260902221834 | 21 | 166 | 8.0 | 24.1 | 0.00 | 0.00 | 0.00 | 75 | 1016.5 |
| 20260902221728 | 21 | 109 | 12.9 | 24.1 | 0.00 | 0.00 | 0.00 | 75 | 1016.5 |
| 20260902221559 | 21 | 164 | 9.7 | 24.1 | 0.00 | 0.00 | 0.00 | 75 | 1016.5 |
| 20260902221521 | 21 | 179 | 9.7 | 19.3 | 0.00 | 0.00 | 0.00 | 75 | 1016.5 |
| 20260902221332 | 21 | 140 | 9.7 | 22.5 | 0.00 | 0.00 | 0.00 | 75 | 1016.6 |
| 20260902221253 | 21 | 156 | 8.0 | 22.5 | 0.00 | 0.00 | 0.00 | 76 | 1016.6 |
| 20260902221123 | 21 | 163 | 6.4 | 22.5 | 0.00 | 0.00 | 0.00 | 75 | 1016.6 |
| 20260902221017 | 21 | 159 | 6.4 | 22.5 | 0.00 | 0.00 | 0.00 | 76 | 1016.6 |
| 20260902220828 | 21 | 171 | 8.0 | 22.5 | 0.00 | 0.00 | 0.00 | 76 | 1016.7 |
| 20260902220742 | 21 | 180 | 8.0 | 22.5 | 0.00 | 0.00 | 0.00 | 76 | 1016.7 |
| 20260902220617 | 21 | 171 | 9.7 | 22.5 | 0.00 | 0.00 | 0.00 | 75 | 1016.7 |
| 20260902220540 | 21 | 148 | 9.7 | 22.5 | 0.00 | 0.00 | 0.00 | 76 | 1016.7 |
| 20260902220410 | 21 | 146 | 8.0 | 16.1 | 0.00 | 0.00 | 0.00 | 76 | 1016.8 |
| 20260902220325 | 21 | 170 | 8.0 | 16.1 | 0.00 | 0.00 | 0.00 | 76 | 1016.8 |
| 20260902220155 | 21 | 154 | 9.7 | 16.1 | 0.00 | 0.00 | 0.00 | 75 | 1017.0 |
| 20260902220118 | 21 | 134 | 9.7 | 16.1 | 0.00 | 0.00 | 0.00 | 76 | 1017.0 |
| 20260902220002 | 21 | 173 | 9.7 | 16.1 | 0.00 | 0.00 | 0.00 | 75 | 1017.2 |
| 20260902215923 | 21 | 144 | 9.7 | 16.1 | 0.00 | 0.00 | 0.00 | 75 | 1017.2 |
| 20260902215754 | 21 | 163 | 8.0 | 16.1 | 0.00 | 0.00 | 0.00 | 75 | 1017.3 |
| 20260902215707 | 21 | 169 | 4.8 | 16.1 | 0.00 | 0.00 | 0.00 | 75 | 1017.3 |
| 20260902215539 | 21 | 188 | 4.8 | 16.1 | 0.00 | 0.00 | 0.00 | 75 | 1017.3 |
| 20260902215440 | 21 | 171 | 6.4 | 16.1 | 0.00 | 0.00 | 0.00 | 75 | 1017.3 |
| 20260902215311 | 21 | 227 | 9.7 | 16.1 | 0.00 | 0.00 | 0.00 | 75 | 1017.3 |
| 20260902215229 | 21 | 146 | 9.7 | 19.3 | 0.00 | 0.00 | 0.00 | 75 | 1017.3 |
| 20260902215101 | 21 | 146 | 4.8 | 17.7 | 0.00 | 0.00 | 0.00 | 75 | 1017.3 |
| 20260902215024 | 21 | 192 | 6.4 | 17.7 | 0.00 | 0.00 | 0.00 | 75 | 1017.3 |
| 20260902214829 | 21 | 185 | 6.4 | 17.7 | 0.00 | 0.00 | 0.00 | 75 | 1017.4 |
| 20260902214751 | 21 | 173 | 8.0 | 17.7 | 0.00 | 0.00 | 0.00 | 75 | 1017.4 |
| 20260902214636 | 21 | 205 | 12.9 | 17.7 | 0.00 | 0.00 | 0.00 | 74 | 1017.3 |
| 20260902214601 | 21 | 169 | 14.5 | 17.7 | 0.00 | 0.00 | 0.00 | 74 | 1017.3 |
| 20260902214521 | 21 | 157 | 12.9 | 17.7 | 0.00 | 0.00 | 0.00 | 74 | 1017.3 |
| 20260902214427 | 22 | 157 | 11.3 | 19.3 | 0.00 | 0.00 | 0.00 | 74 | 1017.3 |
| 20260902214329 | 22 | 197 | 9.7 | 14.5 | 0.00 | 0.00 | 0.00 | 74 | 1017.3 |
| 20260902214138 | 22 | 175 | 8.0 | 14.5 | 0.00 | 0.00 | 0.00 | 74 | 1017.2 |
| 20260902214041 | 22 | 213 | 8.0 | 11.3 | 0.00 | 0.00 | 0.00 | 74 | 1017.2 |
| 20260902213944 | 22 | 160 | 6.4 | 11.3 | 0.00 | 0.00 | 0.00 | 74 | 1017.2 |
| 20260902213837 | 22 | 162 | 6.4 | 11.3 | 0.00 | 0.00 | 0.00 | 74 | 1017.3 |
| 20260902213741 | 22 | 128 | 8.0 | 12.9 | 0.00 | 0.00 | 0.00 | 74 | 1017.3 |
| 20260902213643 | 22 | 186 | 8.0 | 12.9 | 0.00 | 0.00 | 0.00 | 75 | 1017.3 |
| 20260902213607 | 22 | 164 | 8.0 | 12.9 | 0.00 | 0.00 | 0.00 | 74 | 1017.3 |
| 20260902213511 | 22 | 145 | 8.0 | 14.5 | 0.00 | 0.00 | 0.00 | 75 | 1017.4 |
| 20260902213433 | 22 | 167 | 6.4 | 12.9 | 0.00 | 0.00 | 0.00 | 75 | 1017.4 |
| 20260902213305 | 22 | 207 | 6.4 | 12.9 | 0.00 | 0.00 | 0.00 | 74 | 1017.4 |
| 20260902213224 | 22 | 159 | 6.4 | 12.9 | 0.00 | 0.00 | 0.00 | 74 | 1017.4 |
| 20260902213054 | 22 | 159 | 9.7 | 12.9 | 0.00 | 0.00 | 0.00 | 74 | 1017.5 |
| 20260902213016 | 22 | 150 | 8.0 | 14.5 | 0.00 | 0.00 | 0.00 | 74 | 1017.5 |
| 20260902212841 | 22 | 177 | 6.4 | 12.9 | 0.00 | 0.00 | 0.00 | 74 | 1017.5 |
| 20260902212744 | 22 | 175 | 6.4 | 12.9 | 0.00 | 0.00 | 0.00 | 74 | 1017.5 |
| 20260902212628 | 22 | 164 | 6.4 | 12.9 | 0.00 | 0.00 | 0.00 | 74 | 1017.5 |
| 20260902212550 | 22 | 204 | 6.4 | 12.9 | 0.00 | 0.00 | 0.00 | 74 | 1017.5 |
| 20260902212513 | 22 | 190 | 6.4 | 14.5 | 0.00 | 0.00 | 0.00 | 74 | 1017.6 |
| 20260902212418 | 22 | 200 | 8.0 | 14.5 | 0.00 | 0.00 | 0.00 | 74 | 1017.6 |
| 20260902212340 | 22 | 229 | 8.0 | 14.5 | 0.00 | 0.00 | 0.00 | 73 | 1017.6 |
| 20260902212210 | 22 | 202 | 6.4 | 14.5 | 0.00 | 0.00 | 0.00 | 74 | 1017.6 |
| 20260902212130 | 22 | 227 | 6.4 | 14.5 | 0.00 | 0.00 | 0.00 | 74 | 1017.6 |
| 20260902212001 | 22 | 171 | 4.8 | 11.3 | 0.00 | 0.00 | 0.00 | 74 | 1017.6 |
| 20260902211923 | 22 | 171 | 4.8 | 11.3 | 0.00 | 0.00 | 0.00 | 73 | 1017.6 |
| 20260902211724 | 22 | 161 | 6.4 | 11.3 | 0.00 | 0.00 | 0.00 | 74 | 1017.6 |
| 20260902211647 | 22 | 196 | 4.8 | 11.3 | 0.00 | 0.00 | 0.00 | 73 | 1017.5 |
| 20260902211533 | 22 | 187 | 3.2 | 11.3 | 0.00 | 0.00 | 0.00 | 73 | 1017.6 |
| 20260902211455 | 22 | 167 | 4.8 | 11.3 | 0.00 | 0.00 | 0.00 | 73 | 1017.6 |
| 20260902211418 | 22 | 171 | 4.8 | 12.9 | 0.00 | 0.00 | 0.00 | 73 | 1017.6 |
| 20260902211241 | 22 | 140 | 4.8 | 12.9 | 0.00 | 0.00 | 0.00 | 73 | 1017.6 |
| 20260902211201 | 22 | 198 | 3.2 | 12.9 | 0.00 | 0.00 | 0.00 | 73 | 1017.6 |
| 20260902211050 | 22 | 175 | 3.2 | 12.9 | 0.00 | 0.00 | 0.00 | 73 | 1017.6 |
| 20260902210950 | 22 | 196 | 4.8 | 12.9 | 0.00 | 0.00 | 0.00 | 73 | 1017.5 |
| 20260902210800 | 22 | 193 | 6.4 | 16.1 | 0.00 | 0.00 | 0.00 | 72 | 1017.5 |
| 20260902210715 | 22 | 223 | 8.0 | 16.1 | 0.00 | 0.00 | 0.00 | 72 | 1017.6 |
| 20260902210527 | 22 | 156 | 8.0 | 16.1 | 0.00 | 0.00 | 0.00 | 72 | 1017.6 |
| 20260902210440 | 22 | 171 | 8.0 | 16.1 | 0.00 | 0.00 | 0.00 | 72 | 1017.6 |
| 20260902210312 | 22 | 197 | 6.4 | 16.1 | 0.00 | 0.00 | 0.00 | 72 | 1017.6 |
| 20260902210233 | 22 | 244 | 8.0 | 16.1 | 0.00 | 0.00 | 0.00 | 73 | 1017.6 |
| 20260902210037 | 22 | 197 | 8.0 | 16.1 | 0.00 | 0.00 | 0.00 | 73 | 1017.6 |
| 20260902210000 | 22 | 184 | 6.4 | 12.9 | 0.00 | 0.00 | 0.00 | 73 | 1017.6 |
| 20260902205848 | 22 | 184 | 6.4 | 11.3 | 0.00 | 0.00 | 0.00 | 73 | 1017.6 |
| 20260902205729 | 22 | 155 | 8.0 | 11.3 | 0.00 | 0.00 | 0.00 | 72 | 1017.6 |
| 20260902205636 | 22 | 205 | 4.8 | 12.9 | 0.00 | 0.00 | 0.00 | 72 | 1017.5 |
| 20260902205557 | 22 | 205 | 4.8 | 12.9 | 0.00 | 0.00 | 0.00 | 74 | 1017.4 |
| 20260902205520 | 22 | 182 | 1.6 | 12.9 | 0.00 | 0.00 | 0.00 | 74 | 1017.3 |
| 20260902205405 | 22 | 138 | 1.6 | 12.9 | 0.00 | 0.00 | 0.00 | 74 | 1017.3 |
| 20260902205326 | 22 | 138 | 3.2 | 12.9 | 0.00 | 0.00 | 0.00 | 74 | 1017.3 |
| 20260902205157 | 22 | 169 | 4.8 | 12.9 | 0.00 | 0.00 | 0.00 | 74 | 1017.3 |
| 20260902205051 | 22 | 160 | 4.8 | 12.9 | 0.00 | 0.00 | 0.00 | 73 | 1017.3 |
| 20260902204921 | 22 | 132 | 8.0 | 12.9 | 0.00 | 0.00 | 0.00 | 74 | 1017.3 |
| 20260902204843 | 22 | 169 | 9.7 | 12.9 | 0.00 | 0.00 | 0.00 | 73 | 1017.3 |
| 20260902204714 | 22 | 162 | 9.7 | 12.9 | 0.00 | 0.00 | 0.00 | 73 | 1017.1 |
| 20260902204633 | 22 | 190 | 8.0 | 12.9 | 0.00 | 0.00 | 0.00 | 73 | 1017.1 |
| 20260902204444 | 22 | 170 | 8.0 | 12.9 | 0.00 | 0.00 | 0.00 | 73 | 1017.1 |
| 20260902204341 | 22 | 131 | 6.4 | 11.3 | 0.00 | 0.00 | 0.00 | 73 | 1017.2 |
| 20260902204224 | 22 | 173 | 6.4 | 11.3 | 0.00 | 0.00 | 0.00 | 73 | 1017.2 |
| 20260902204127 | 22 | 179 | 6.4 | 19.3 | 0.00 | 0.00 | 0.00 | 73 | 1017.3 |
| 20260902204053 | 22 | 181 | 6.4 | 19.3 | 0.00 | 0.00 | 0.00 | 73 | 1017.3 |
| 20260902204015 | 22 | 178 | 6.4 | 19.3 | 0.00 | 0.00 | 0.00 | 73 | 1017.3 |
| 20260902203937 | 22 | 153 | 4.8 | 19.3 | 0.00 | 0.00 | 0.00 | 73 | 1017.3 |
| 20260902203725 | 22 | 166 | 3.2 | 19.3 | 0.00 | 0.00 | 0.00 | 74 | 1017.4 |
| 20260902203649 | 22 | 142 | 3.2 | 19.3 | 0.00 | 0.00 | 0.00 | 73 | 1017.5 |
| 20260902203553 | 22 | 230 | 3.2 | 19.3 | 0.00 | 0.00 | 0.00 | 73 | 1017.5 |
| 20260902203514 | 22 | 185 | 4.8 | 19.3 | 0.00 | 0.00 | 0.00 | 73 | 1017.5 |
| 20260902203346 | 22 | 163 | 6.4 | 19.3 | 0.00 | 0.00 | 0.00 | 72 | 1017.5 |
| 20260902203259 | 22 | 184 | 4.8 | 11.3 | 0.00 | 0.00 | 0.00 | 72 | 1017.6 |
| 20260902203130 | 22 | 157 | 4.8 | 12.9 | 0.00 | 0.00 | 0.00 | 73 | 1017.6 |
| 20260902203031 | 22 | 126 | 3.2 | 16.1 | 0.00 | 0.00 | 0.00 | 73 | 1017.6 |
| 20260902202835 | 22 | 173 | 4.8 | 16.1 | 0.00 | 0.00 | 0.00 | 72 | 1017.6 |
| 20260902202758 | 22 | 134 | 6.4 | 16.1 | 0.00 | 0.00 | 0.00 | 72 | 1017.7 |
| 20260902202627 | 22 | 131 | 4.8 | 16.1 | 0.00 | 0.00 | 0.00 | 72 | 1017.7 |
| 20260902202542 | 22 | 188 | 6.4 | 17.7 | 0.00 | 0.00 | 0.00 | 72 | 1017.7 |
| 20260902202413 | 22 | 180 | 11.3 | 17.7 | 0.00 | 0.00 | 0.00 | 71 | 1017.6 |
| 20260902202315 | 22 | 163 | 9.7 | 17.7 | 0.00 | 0.00 | 0.00 | 72 | 1017.7 |
| 20260902202216 | 22 | 154 | 9.7 | 17.7 | 0.00 | 0.00 | 0.00 | 72 | 1017.6 |
| 20260902202121 | 22 | 182 | 8.0 | 17.7 | 0.00 | 0.00 | 0.00 | 72 | 1017.7 |
| 20260902202041 | 22 | 151 | 8.0 | 17.7 | 0.00 | 0.00 | 0.00 | 72 | 1017.7 |
| 20260902201911 | 22 | 184 | 6.4 | 20.9 | 0.00 | 0.00 | 0.00 | 73 | 1017.8 |
| 20260902201825 | 22 | 165 | 9.7 | 20.9 | 0.00 | 0.00 | 0.00 | 72 | 1017.8 |
| 20260902201656 | 22 | 155 | 11.3 | 20.9 | 0.00 | 0.00 | 0.00 | 71 | 1017.9 |
| 20260902201618 | 22 | 122 | 4.8 | 20.9 | 0.00 | 0.00 | 0.00 | 73 | 1017.9 |
| 20260902201446 | 22 | 198 | 4.8 | 20.9 | 0.00 | 0.00 | 0.00 | 73 | 1017.9 |
| 20260902201348 | 22 | 202 | 6.4 | 20.9 | 0.00 | 0.00 | 0.00 | 72 | 1017.9 |
| 20260902201218 | 22 | 210 | 11.3 | 20.9 | 0.00 | 0.00 | 0.00 | 71 | 1017.9 |
| 20260902201113 | 22 | 208 | 8.0 | 20.9 | 0.00 | 0.00 | 0.00 | 72 | 1017.9 |
| 20260902200843 | 22 | 168 | 9.7 | 17.7 | 0.00 | 0.00 | 0.00 | 71 | 1017.9 |
| 20260902200738 | 22 | 154 | 9.7 | 17.7 | 0.00 | 0.00 | 0.00 | 72 | 1017.9 |
| 20260902200624 | 22 | 142 | 6.4 | 16.1 | 0.00 | 0.00 | 0.00 | 72 | 1017.9 |
| 20260902200556 | 22 | 189 | 6.4 | 24.1 | 0.00 | 0.00 | 0.00 | 72 | 1017.9 |
| 20260902200519 | 22 | 196 | 6.4 | 24.1 | 0.00 | 0.00 | 0.00 | 72 | 1017.9 |
| 20260902200327 | 22 | 170 | 6.4 | 24.1 | 0.00 | 0.00 | 0.00 | 72 | 1017.9 |
| 20260902200241 | 22 | 263 | 9.7 | 24.1 | 0.00 | 0.00 | 0.00 | 72 | 1017.9 |
| 20260902200110 | 22 | 168 | 6.4 | 24.1 | 0.00 | 0.00 | 0.00 | 72 | 1017.9 |
| 20260902200012 | 22 | 190 | 8.0 | 22.5 | 0.00 | 0.00 | 0.00 | 72 | 1017.9 |
| 20260902195817 | 22 | 223 | 12.9 | 22.5 | 0.00 | 0.00 | 0.00 | 70 | 1017.9 |
| 20260902195742 | 22 | 192 | 12.9 | 24.1 | 0.00 | 0.00 | 0.00 | 72 | 1018.0 |
| 20260902195614 | 22 | 202 | 12.9 | 22.5 | 0.00 | 0.00 | 0.00 | 71 | 1018.0 |
| 20260902195535 | 22 | 150 | 12.9 | 22.5 | 0.00 | 0.00 | 0.00 | 71 | 1018.0 |
| 20260902195407 | 22 | 190 | 9.7 | 22.5 | 0.00 | 0.00 | 0.00 | 71 | 1018.1 |
| 20260902195225 | 22 | 123 | 12.9 | 22.5 | 0.00 | 0.00 | 0.00 | 70 | 1018.1 |
| 20260902195131 | 22 | 202 | 14.5 | 22.5 | 0.00 | 0.00 | 0.00 | 70 | 1018.1 |
| 20260902195032 | 22 | 180 | 9.7 | 20.9 | 0.00 | 0.00 | 0.00 | 71 | 1018.1 |
| 20260902194948 | 22 | 180 | 8.0 | 20.9 | 0.00 | 0.00 | 0.00 | 72 | 1018.1 |
| 20260902194909 | 22 | 164 | 8.0 | 20.9 | 0.00 | 0.00 | 0.00 | 71 | 1018.2 |
| 20260902194832 | 22 | 99 | 6.4 | 16.1 | 0.00 | 0.00 | 0.00 | 71 | 1018.2 |
| 20260902194634 | 22 | 140 | 6.4 | 16.1 | 0.00 | 0.00 | 0.00 | 72 | 1018.1 |
| 20260902194557 | 22 | 167 | 8.0 | 16.1 | 0.00 | 0.00 | 0.00 | 71 | 1018.1 |
| 20260902194503 | 22 | 168 | 6.4 | 16.1 | 0.00 | 0.00 | 0.00 | 71 | 1018.0 |
| 20260902194425 | 22 | 200 | 4.8 | 16.1 | 0.00 | 0.00 | 0.00 | 71 | 1018.0 |
| 20260902194213 | 22 | 161 | 6.4 | 16.1 | 0.00 | 0.00 | 0.00 | 71 | 1018.0 |
| 20260902194128 | 22 | 163 | 9.7 | 16.1 | 0.00 | 0.00 | 0.00 | 70 | 1018.0 |
| 20260902194031 | 22 | 157 | 8.0 | 17.7 | 0.00 | 0.00 | 0.00 | 70 | 1018.0 |
| 20260902193934 | 22 | 145 | 6.4 | 16.1 | 0.00 | 0.00 | 0.00 | 71 | 1017.9 |
| 20260902193831 | 22 | 172 | 6.4 | 16.1 | 0.00 | 0.00 | 0.00 | 71 | 1018.0 |
| 20260902193734 | 22 | 169 | 4.8 | 22.5 | 0.00 | 0.00 | 0.00 | 71 | 1018.0 |
| 20260902193641 | 22 | 192 | 8.0 | 22.5 | 0.00 | 0.00 | 0.00 | 71 | 1018.0 |
| 20260902193556 | 22 | 128 | 8.0 | 22.5 | 0.00 | 0.00 | 0.00 | 71 | 1018.1 |
| 20260902193518 | 22 | 130 | 9.7 | 22.5 | 0.00 | 0.00 | 0.00 | 71 | 1018.1 |
| 20260902193323 | 22 | 181 | 3.2 | 22.5 | 0.00 | 0.00 | 0.00 | 72 | 1018.1 |
| 20260902193225 | 22 | 147 | 3.2 | 22.5 | 0.00 | 0.00 | 0.00 | 71 | 1018.2 |
| 20260902193129 | 22 | 146 | 8.0 | 22.5 | 0.00 | 0.00 | 0.00 | 72 | 1018.2 |
| 20260902193051 | 22 | 169 | 11.3 | 22.5 | 0.00 | 0.00 | 0.00 | 71 | 1018.2 |
| 20260902192922 | 22 | 156 | 4.8 | 22.5 | 0.00 | 0.00 | 0.00 | 71 | 1018.2 |
| 20260902192816 | 22 | 136 | 4.8 | 22.5 | 0.00 | 0.00 | 0.00 | 72 | 1018.3 |
| 20260902192645 | 22 | 207 | 6.4 | 22.5 | 0.00 | 0.00 | 0.00 | 70 | 1018.2 |
| 20260902192548 | 22 | 163 | 6.4 | 22.5 | 0.00 | 0.00 | 0.00 | 70 | 1018.2 |
| 20260902192514 | 22 | 184 | 6.4 | 22.5 | 0.00 | 0.00 | 0.00 | 70 | 1018.2 |
| 20260902192330 | 22 | 237 | 12.9 | 22.5 | 0.00 | 0.00 | 0.00 | 69 | 1018.3 |
| 20260902192251 | 22 | 219 | 12.9 | 22.5 | 0.00 | 0.00 | 0.00 | 69 | 1018.3 |
| 20260902192154 | 22 | 205 | 8.0 | 25.7 | 0.00 | 0.00 | 0.00 | 69 | 1018.3 |
| 20260902192055 | 22 | 176 | 8.0 | 25.7 | 0.00 | 0.00 | 0.00 | 70 | 1018.3 |
| 20260902192017 | 22 | 191 | 6.4 | 25.7 | 0.00 | 0.00 | 0.00 | 70 | 1018.2 |
| 20260902191921 | 22 | 202 | 6.4 | 25.7 | 0.00 | 0.00 | 0.00 | 70 | 1018.3 |
| 20260902191843 | 22 | 178 | 8.0 | 25.7 | 0.00 | 0.00 | 0.00 | 70 | 1018.3 |
| 20260902191625 | 22 | 175 | 12.9 | 25.7 | 0.00 | 0.00 | 0.00 | 69 | 1018.3 |
| 20260902191528 | 22 | 185 | 12.9 | 25.7 | 0.00 | 0.00 | 0.00 | 69 | 1018.3 |
| 20260902191435 | 22 | 159 | 11.3 | 27.4 | 0.00 | 0.00 | 0.00 | 69 | 1018.3 |
| 20260902191335 | 22 | 237 | 9.7 | 19.3 | 0.00 | 0.00 | 0.00 | 69 | 1018.3 |
| 20260902191259 | 22 | 200 | 8.0 | 19.3 | 0.00 | 0.00 | 0.00 | 69 | 1018.2 |
| 20260902191201 | 23 | 214 | 9.7 | 19.3 | 0.00 | 0.00 | 0.00 | 69 | 1018.2 |
| 20260902191043 | 23 | 165 | 11.3 | 19.3 | 0.00 | 0.00 | 0.00 | 67 | 1018.2 |
| 20260902190945 | 23 | 175 | 11.3 | 24.1 | 0.00 | 0.00 | 0.00 | 68 | 1018.1 |
| 20260902190825 | 23 | 177 | 11.3 | 17.7 | 0.00 | 0.00 | 0.00 | 68 | 1018.1 |
| 20260902190728 | 23 | 200 | 12.9 | 17.7 | 0.00 | 0.00 | 0.00 | 68 | 1018.1 |
| 20260902190650 | 23 | 145 | 12.9 | 17.7 | 0.00 | 0.00 | 0.00 | 68 | 1018.0 |
| 20260902190612 | 23 | 123 | 11.3 | 19.3 | 0.00 | 0.00 | 0.00 | 68 | 1018.0 |
| 20260902190337 | 23 | 136 | 12.9 | 17.7 | 0.00 | 0.00 | 0.00 | 67 | 1018.0 |
| 20260902190258 | 23 | 105 | 14.5 | 19.3 | 0.00 | 0.00 | 0.00 | 67 | 1018.0 |
| 20260902190142 | 23 | 138 | 11.3 | 25.7 | 0.00 | 0.00 | 0.00 | 67 | 1018.1 |
| 20260902190104 | 23 | 128 | 11.3 | 25.7 | 0.00 | 0.00 | 0.00 | 68 | 1018.0 |
| 20260902185937 | 23 | 230 | 11.3 | 25.7 | 0.00 | 0.00 | 0.00 | 67 | 1018.1 |
| 20260902185840 | 23 | 190 | 9.7 | 25.7 | 0.00 | 0.00 | 0.00 | 68 | 1018.0 |
| 20260902185724 | 23 | 178 | 9.7 | 25.7 | 0.00 | 0.00 | 0.00 | 68 | 1018.0 |
| 20260902185645 | 23 | 197 | 11.3 | 25.7 | 0.00 | 0.00 | 0.00 | 68 | 1018.0 |
| 20260902185507 | 23 | 142 | 12.9 | 25.7 | 0.00 | 0.00 | 0.00 | 67 | 1018.0 |
| 20260902185434 | 23 | 155 | 12.9 | 25.7 | 0.00 | 0.00 | 0.00 | 66 | 1018.0 |
| 20260902185244 | 23 | 194 | 11.3 | 19.3 | 0.00 | 0.00 | 0.00 | 68 | 1018.0 |
| 20260902185138 | 23 | 171 | 12.9 | 17.7 | 0.00 | 0.00 | 0.00 | 68 | 1018.0 |
| 20260902185023 | 23 | 137 | 11.3 | 19.3 | 0.00 | 0.00 | 0.00 | 69 | 1018.0 |
| 20260902184945 | 23 | 142 | 9.7 | 17.7 | 0.00 | 0.00 | 0.00 | 69 | 1018.0 |
| 20260902184906 | 23 | 182 | 11.3 | 17.7 | 0.00 | 0.00 | 0.00 | 70 | 1018.0 |
| 20260902184812 | 23 | 167 | 9.7 | 17.7 | 0.00 | 0.00 | 0.00 | 70 | 1018.1 |
| 20260902184733 | 23 | 178 | 11.3 | 19.3 | 0.00 | 0.00 | 0.00 | 69 | 1018.1 |
| 20260902184605 | 23 | 145 | 11.3 | 17.7 | 0.00 | 0.00 | 0.00 | 70 | 1018.0 |
| 20260902184520 | 22 | 176 | 11.3 | 17.7 | 0.00 | 0.00 | 0.00 | 70 | 1018.1 |
| 20260902184354 | 22 | 178 | 8.0 | 17.7 | 0.00 | 0.00 | 0.00 | 69 | 1018.1 |
| 20260902184254 | 22 | 155 | 9.7 | 17.7 | 0.00 | 0.00 | 0.00 | 69 | 1018.1 |
| 20260902184140 | 22 | 155 | 11.3 | 19.3 | 0.00 | 0.00 | 0.00 | 70 | 1018.2 |
| 20260902184101 | 22 | 196 | 11.3 | 19.3 | 0.00 | 0.00 | 0.00 | 70 | 1018.1 |
| 20260902184002 | 22 | 197 | 11.3 | 20.9 | 0.00 | 0.00 | 0.00 | 71 | 1018.2 |
| 20260902183906 | 22 | 158 | 11.3 | 17.7 | 0.00 | 0.00 | 0.00 | 71 | 1018.3 |
| 20260902183827 | 22 | 144 | 11.3 | 17.7 | 0.00 | 0.00 | 0.00 | 70 | 1018.3 |
| 20260902183630 | 22 | 204 | 8.0 | 17.7 | 0.00 | 0.00 | 0.00 | 71 | 1018.4 |
| 20260902183531 | 22 | 160 | 9.7 | 17.7 | 0.00 | 0.00 | 0.00 | 71 | 1018.4 |
| 20260902183433 | 22 | 228 | 11.3 | 17.7 | 0.00 | 0.00 | 0.00 | 71 | 1018.5 |
| 20260902183400 | 22 | 221 | 11.3 | 17.7 | 0.00 | 0.00 | 0.00 | 71 | 1018.5 |
| 20260902183224 | 22 | 173 | 9.7 | 17.7 | 0.00 | 0.00 | 0.00 | 72 | 1018.5 |
| 20260902183146 | 22 | 143 | 8.0 | 16.1 | 0.00 | 0.00 | 0.00 | 72 | 1018.6 |
| 20260902183016 | 22 | 168 | 4.8 | 16.1 | 0.00 | 0.00 | 0.00 | 72 | 1018.6 |
| 20260902182931 | 22 | 207 | 6.4 | 17.7 | 0.00 | 0.00 | 0.00 | 72 | 1018.6 |
| 20260902182741 | 22 | 149 | 6.4 | 17.7 | 0.00 | 0.00 | 0.00 | 71 | 1018.7 |
| 20260902182657 | 22 | 202 | 9.7 | 17.7 | 0.00 | 0.00 | 0.00 | 71 | 1018.7 |
| 20260902182505 | 22 | 180 | 8.0 | 17.7 | 0.00 | 0.00 | 0.00 | 71 | 1018.8 |
| 20260902182426 | 22 | 196 | 8.0 | 17.7 | 0.00 | 0.00 | 0.00 | 71 | 1018.8 |
| 20260902182246 | 22 | 187 | 9.7 | 17.7 | 0.00 | 0.00 | 0.00 | 71 | 1018.7 |
| 20260902182123 | 22 | 190 | 8.0 | 17.7 | 0.00 | 0.00 | 0.00 | 70 | 1018.7 |
| 20260902182044 | 22 | 215 | 6.4 | 20.9 | 0.00 | 0.00 | 0.00 | 70 | 1018.7 |
| 20260902181937 | 22 | 150 | 6.4 | 17.7 | 0.00 | 0.00 | 0.00 | 70 | 1018.7 |
| 20260902181857 | 22 | 163 | 8.0 | 17.7 | 0.00 | 0.00 | 0.00 | 70 | 1018.7 |
| 20260902181740 | 22 | 178 | 8.0 | 17.7 | 0.00 | 0.00 | 0.00 | 70 | 1018.6 |
| 20260902181701 | 22 | 154 | 8.0 | 17.7 | 0.00 | 0.00 | 0.00 | 70 | 1018.6 |
| 20260902181623 | 22 | 219 | 8.0 | 17.7 | 0.00 | 0.00 | 0.00 | 70 | 1018.6 |
| 20260902181507 | 22 | 200 | 8.0 | 17.7 | 0.00 | 0.00 | 0.00 | 70 | 1018.6 |
| 20260902181429 | 22 | 155 | 9.7 | 17.7 | 0.00 | 0.00 | 0.00 | 69 | 1018.6 |
| 20260902181258 | 22 | 217 | 12.9 | 17.7 | 0.00 | 0.00 | 0.00 | 69 | 1018.6 |
| 20260902181213 | 23 | 168 | 11.3 | 19.3 | 0.00 | 0.00 | 0.00 | 69 | 1018.6 |
| 20260902181021 | 23 | 234 | 8.0 | 14.5 | 0.00 | 0.00 | 0.00 | 69 | 1018.5 |
| 20260902180925 | 23 | 153 | 8.0 | 14.5 | 0.00 | 0.00 | 0.00 | 69 | 1018.5 |
| 20260902180756 | 23 | 185 | 9.7 | 14.5 | 0.00 | 0.00 | 0.00 | 71 | 1018.5 |
| 20260902180630 | 23 | 209 | 8.0 | 12.9 | 0.00 | 0.00 | 0.00 | 70 | 1018.4 |
| 20260902180535 | 23 | 175 | 6.4 | 16.1 | 0.00 | 0.00 | 0.00 | 70 | 1018.5 |
| 20260902180458 | 23 | 202 | 6.4 | 16.1 | 0.00 | 0.00 | 0.00 | 70 | 1018.5 |
| 20260902180237 | 23 | 141 | 4.8 | 16.1 | 0.00 | 0.00 | 0.00 | 70 | 1018.5 |
| 20260902180130 | 23 | 159 | 4.8 | 16.1 | 0.00 | 0.00 | 0.00 | 70 | 1018.5 |
| 20260902175940 | 23 | 135 | 8.0 | 16.1 | 0.00 | 0.00 | 0.00 | 70 | 1018.6 |
| 20260902175834 | 23 | 167 | 9.7 | 16.1 | 0.00 | 0.00 | 0.00 | 68 | 1018.6 |
| 20260902175723 | 23 | 169 | 11.3 | 16.1 | 0.00 | 0.00 | 0.00 | 68 | 1018.6 |
| 20260902175645 | 23 | 144 | 11.3 | 16.1 | 0.00 | 0.00 | 0.00 | 68 | 1018.6 |
| 20260902175618 | 23 | 176 | 9.7 | 16.1 | 0.00 | 0.00 | 0.00 | 67 | 1018.6 |
| 20260902175442 | 23 | 161 | 8.0 | 12.9 | 0.00 | 0.00 | 0.00 | 69 | 1018.6 |
| 20260902175344 | 23 | 136 | 6.4 | 14.5 | 0.00 | 0.00 | 0.00 | 69 | 1018.6 |
| 20260902175228 | 23 | 151 | 3.2 | 14.5 | 0.00 | 0.00 | 0.00 | 71 | 1018.6 |
| 20260902175148 | 23 | 188 | 3.2 | 14.5 | 0.00 | 0.00 | 0.00 | 71 | 1018.5 |
| 20260902175021 | 23 | 160 | 6.4 | 14.5 | 0.00 | 0.00 | 0.00 | 69 | 1018.5 |
| 20260902174934 | 23 | 196 | 8.0 | 14.5 | 0.00 | 0.00 | 0.00 | 69 | 1018.5 |
| 20260902174804 | 23 | 197 | 8.0 | 14.5 | 0.00 | 0.00 | 0.00 | 68 | 1018.5 |
| 20260902174718 | 23 | 188 | 6.4 | 14.5 | 0.00 | 0.00 | 0.00 | 68 | 1018.5 |
| 20260902174519 | 23 | 139 | 6.4 | 14.5 | 0.00 | 0.00 | 0.00 | 67 | 1018.6 |
| 20260902174426 | 23 | 185 | 6.4 | 14.5 | 0.00 | 0.00 | 0.00 | 69 | 1018.5 |
| 20260902174347 | 23 | 163 | 6.4 | 14.5 | 0.00 | 0.00 | 0.00 | 70 | 1018.5 |
| 20260902174252 | 23 | 126 | 6.4 | 16.1 | 0.00 | 0.00 | 0.00 | 68 | 1018.6 |
| 20260902174214 | 23 | 198 | 8.0 | 16.1 | 0.00 | 0.00 | 0.00 | 68 | 1018.6 |
| 20260902174027 | 23 | 161 | 8.0 | 16.1 | 0.00 | 0.00 | 0.00 | 68 | 1018.5 |
| 20260902173930 | 23 | 178 | 8.0 | 16.1 | 0.00 | 0.00 | 0.00 | 68 | 1018.6 |
| 20260902173831 | 23 | 211 | 8.0 | 16.1 | 0.00 | 0.00 | 0.00 | 68 | 1018.6 |
| 20260902173752 | 23 | 220 | 6.4 | 16.1 | 0.00 | 0.00 | 0.00 | 69 | 1018.6 |
| 20260902173536 | 23 | 148 | 9.7 | 16.1 | 0.00 | 0.00 | 0.00 | 68 | 1018.6 |
| 20260902173457 | 23 | 182 | 9.7 | 16.1 | 0.00 | 0.00 | 0.00 | 68 | 1018.6 |
| 20260902173400 | 23 | 193 | 11.3 | 16.1 | 0.00 | 0.00 | 0.00 | 66 | 1018.6 |
| 20260902173323 | 23 | 175 | 9.7 | 17.7 | 0.00 | 0.00 | 0.00 | 69 | 1018.6 |
| 20260902173135 | 23 | 167 | 8.0 | 17.7 | 0.00 | 0.00 | 0.00 | 69 | 1018.6 |
| 20260902173027 | 23 | 209 | 8.0 | 17.7 | 0.00 | 0.00 | 0.00 | 69 | 1018.6 |
| 20260902172930 | 23 | 172 | 9.7 | 17.7 | 0.00 | 0.00 | 0.00 | 69 | 1018.6 |
| 20260902172835 | 23 | 200 | 9.7 | 17.7 | 0.00 | 0.00 | 0.00 | 69 | 1018.5 |
| 20260902172758 | 23 | 129 | 9.7 | 17.7 | 0.00 | 0.00 | 0.00 | 69 | 1018.5 |
| 20260902172701 | 23 | 180 | 8.0 | 17.7 | 0.00 | 0.00 | 0.00 | 69 | 1018.5 |
| 20260902172622 | 23 | 154 | 9.7 | 17.7 | 0.00 | 0.00 | 0.00 | 71 | 1018.5 |
| 20260902172425 | 23 | 188 | 9.7 | 17.7 | 0.00 | 0.00 | 0.00 | 69 | 1018.4 |
| 20260902172327 | 23 | 152 | 8.0 | 14.5 | 0.00 | 0.00 | 0.00 | 70 | 1018.4 |
| 20260902172230 | 23 | 188 | 6.4 | 16.1 | 0.00 | 0.00 | 0.00 | 71 | 1018.4 |
| 20260902172151 | 23 | 241 | 9.7 | 16.1 | 0.00 | 0.00 | 0.00 | 71 | 1018.5 |
| 20260902172001 | 23 | 193 | 9.7 | 16.1 | 0.00 | 0.00 | 0.00 | 69 | 1018.5 |
| 20260902171916 | 23 | 156 | 9.7 | 16.1 | 0.00 | 0.00 | 0.00 | 70 | 1018.4 |
| 20260902171751 | 22 | 197 | 9.7 | 16.1 | 0.00 | 0.00 | 0.00 | 69 | 1018.5 |
| 20260902171712 | 22 | 129 | 8.0 | 16.1 | 0.00 | 0.00 | 0.00 | 71 | 1018.5 |
| 20260902171634 | 22 | 159 | 8.0 | 16.1 | 0.00 | 0.00 | 0.00 | 70 | 1018.5 |
| 20260902171517 | 22 | 145 | 9.7 | 16.1 | 0.00 | 0.00 | 0.00 | 69 | 1018.5 |
| 20260902171439 | 22 | 192 | 9.7 | 16.1 | 0.00 | 0.00 | 0.00 | 70 | 1018.5 |
| 20260902171259 | 22 | 199 | 6.4 | 17.7 | 0.00 | 0.00 | 0.00 | 70 | 1018.6 |
| 20260902171101 | 22 | 176 | 8.0 | 17.7 | 0.00 | 0.00 | 0.00 | 69 | 1018.7 |
| 20260902170941 | 22 | 147 | 6.4 | 17.7 | 0.00 | 0.00 | 0.00 | 71 | 1018.7 |
| 20260902170835 | 22 | 233 | 6.4 | 17.7 | 0.00 | 0.00 | 0.00 | 70 | 1018.8 |
| 20260902170757 | 22 | 198 | 6.4 | 17.7 | 0.00 | 0.00 | 0.00 | 69 | 1018.8 |
| 20260902170626 | 22 | 164 | 11.3 | 17.7 | 0.00 | 0.00 | 0.00 | 68 | 1018.8 |
| 20260902170542 | 22 | 180 | 12.9 | 17.7 | 0.00 | 0.00 | 0.00 | 68 | 1018.8 |
| 20260902170413 | 22 | 182 | 12.9 | 22.5 | 0.00 | 0.00 | 0.00 | 68 | 1018.8 |
| 20260902170335 | 23 | 138 | 12.9 | 22.5 | 0.00 | 0.00 | 0.00 | 67 | 1018.8 |
| 20260902170053 | 23 | 177 | 8.0 | 16.1 | 0.00 | 0.00 | 0.00 | 67 | 1018.7 |
| 20260902165946 | 23 | 188 | 8.0 | 16.1 | 0.00 | 0.00 | 0.00 | 69 | 1018.8 |
| 20260902165735 | 23 | 180 | 9.7 | 19.3 | 0.00 | 0.00 | 0.00 | 68 | 1018.8 |
| 20260902165632 | 23 | 146 | 11.3 | 19.3 | 0.00 | 0.00 | 0.00 | 69 | 1018.8 |
| 20260902165553 | 23 | 128 | 11.3 | 19.3 | 0.00 | 0.00 | 0.00 | 68 | 1018.7 |
| 20260902165441 | 23 | 194 | 11.3 | 19.3 | 0.00 | 0.00 | 0.00 | 67 | 1018.8 |
| 20260902165401 | 23 | 131 | 12.9 | 19.3 | 0.00 | 0.00 | 0.00 | 67 | 1018.7 |
| 20260902165315 | 23 | 205 | 12.9 | 19.3 | 0.00 | 0.00 | 0.00 | 68 | 1018.7 |
| 20260902165214 | 23 | 168 | 12.9 | 16.1 | 0.00 | 0.00 | 0.00 | 67 | 1018.6 |
| 20260902165116 | 23 | 193 | 14.5 | 17.7 | 0.00 | 0.00 | 0.00 | 67 | 1018.6 |
| 20260902164940 | 23 | 207 | 9.7 | 19.3 | 0.00 | 0.00 | 0.00 | 69 | 1018.6 |
| 20260902164841 | 23 | 176 | 9.7 | 19.3 | 0.00 | 0.00 | 0.00 | 68 | 1018.5 |
| 20260902164726 | 23 | 138 | 11.3 | 20.9 | 0.00 | 0.00 | 0.00 | 69 | 1018.6 |
| 20260902164648 | 23 | 158 | 12.9 | 22.5 | 0.00 | 0.00 | 0.00 | 68 | 1018.6 |
| 20260902164530 | 23 | 136 | 12.9 | 22.5 | 0.00 | 0.00 | 0.00 | 68 | 1018.5 |
| 20260902164437 | 23 | 135 | 11.3 | 22.5 | 0.00 | 0.00 | 0.00 | 67 | 1018.6 |
| 20260902164358 | 23 | 179 | 9.7 | 22.5 | 0.00 | 0.00 | 0.00 | 68 | 1018.6 |
| 20260902164301 | 23 | 247 | 8.0 | 22.5 | 0.00 | 0.00 | 0.00 | 68 | 1018.6 |
| 20260902164200 | 23 | 231 | 8.0 | 22.5 | 0.00 | 0.00 | 0.00 | 70 | 1018.7 |
| 20260902164120 | 23 | 114 | 11.3 | 22.5 | 0.00 | 0.00 | 0.00 | 68 | 1018.7 |
| 20260902163923 | 22 | 135 | 11.3 | 22.5 | 0.00 | 0.00 | 0.00 | 68 | 1018.8 |
| 20260902163838 | 22 | 187 | 11.3 | 17.7 | 0.00 | 0.00 | 0.00 | 68 | 1018.8 |
| 20260902163708 | 22 | 188 | 12.9 | 17.7 | 0.00 | 0.00 | 0.00 | 67 | 1018.8 |
| 20260902163630 | 22 | 197 | 11.3 | 17.7 | 0.00 | 0.00 | 0.00 | 67 | 1018.8 |
| 20260902163435 | 23 | 186 | 11.3 | 17.7 | 0.00 | 0.00 | 0.00 | 69 | 1018.9 |
| 20260902163400 | 23 | 217 | 9.7 | 17.7 | 0.00 | 0.00 | 0.00 | 69 | 1018.9 |
| 20260902163303 | 23 | 204 | 6.4 | 17.7 | 0.00 | 0.00 | 0.00 | 69 | 1018.9 |
| 20260902163202 | 22 | 166 | 4.8 | 25.7 | 0.00 | 0.00 | 0.00 | 71 | 1018.9 |
| 20260902163011 | 22 | 221 | 8.0 | 25.7 | 0.00 | 0.00 | 0.00 | 69 | 1018.9 |
| 20260902162925 | 22 | 154 | 9.7 | 25.7 | 0.00 | 0.00 | 0.00 | 68 | 1018.9 |
| 20260902162755 | 22 | 138 | 11.3 | 25.7 | 0.00 | 0.00 | 0.00 | 69 | 1019.0 |
| 20260902162717 | 22 | 152 | 11.3 | 25.7 | 0.00 | 0.00 | 0.00 | 67 | 1019.0 |
| 20260902162546 | 22 | 113 | 11.3 | 25.7 | 0.00 | 0.00 | 0.00 | 68 | 1019.2 |
| 20260902162421 | 22 | 157 | 14.5 | 25.7 | 0.00 | 0.00 | 0.00 | 69 | 1019.1 |
| 20260902162334 | 23 | 180 | 14.5 | 25.7 | 0.00 | 0.00 | 0.00 | 67 | 1019.1 |
| 20260902162254 | 23 | 163 | 12.9 | 22.5 | 0.00 | 0.00 | 0.00 | 67 | 1019.1 |
| 20260902162218 | 23 | 176 | 11.3 | 22.5 | 0.00 | 0.00 | 0.00 | 67 | 1019.1 |
| 20260902162122 | 23 | 179 | 9.7 | 22.5 | 0.00 | 0.00 | 0.00 | 69 | 1019.1 |
| 20260902162044 | 23 | 152 | 9.7 | 22.5 | 0.00 | 0.00 | 0.00 | 67 | 1019.1 |
| 20260902161914 | 23 | 114 | 11.3 | 22.5 | 0.00 | 0.00 | 0.00 | 68 | 1019.1 |
| 20260902161828 | 23 | 126 | 11.3 | 22.5 | 0.00 | 0.00 | 0.00 | 68 | 1019.1 |
| 20260902161638 | 23 | 150 | 9.7 | 22.5 | 0.00 | 0.00 | 0.00 | 70 | 1019.1 |
| 20260902161531 | 23 | 140 | 6.4 | 19.3 | 0.00 | 0.00 | 0.00 | 71 | 1019.0 |
| 20260902161424 | 23 | 156 | 9.7 | 19.3 | 0.00 | 0.00 | 0.00 | 71 | 1019.0 |
| 20260902161346 | 23 | 175 | 11.3 | 19.3 | 0.00 | 0.00 | 0.00 | 69 | 1019.0 |
| 20260902161215 | 22 | 163 | 11.3 | 17.7 | 0.00 | 0.00 | 0.00 | 71 | 1019.0 |
| 20260902161133 | 22 | 136 | 11.3 | 17.7 | 0.00 | 0.00 | 0.00 | 70 | 1019.0 |
| 20260902160944 | 22 | 223 | 11.3 | 17.7 | 0.00 | 0.00 | 0.00 | 69 | 1019.1 |
| 20260902160838 | 22 | 160 | 11.3 | 17.7 | 0.00 | 0.00 | 0.00 | 72 | 1019.1 |
| 20260902160731 | 22 | 149 | 9.7 | 16.1 | 0.00 | 0.00 | 0.00 | 72 | 1019.1 |
| 20260902160653 | 22 | 191 | 6.4 | 16.1 | 0.00 | 0.00 | 0.00 | 71 | 1019.1 |
| 20260902160434 | 22 | 150 | 8.0 | 14.5 | 0.00 | 0.00 | 0.00 | 71 | 1019.2 |
| 20260902160335 | 22 | 152 | 8.0 | 14.5 | 0.00 | 0.00 | 0.00 | 72 | 1019.2 |
| 20260902160223 | 22 | 162 | 6.4 | 12.9 | 0.00 | 0.00 | 0.00 | 72 | 1019.2 |
| 20260902160145 | 22 | 157 | 6.4 | 12.9 | 0.00 | 0.00 | 0.00 | 73 | 1019.2 |
| 20260902160108 | 22 | 204 | 8.0 | 12.9 | 0.00 | 0.00 | 0.00 | 72 | 1019.2 |
| 20260902155951 | 22 | 160 | 6.4 | 12.9 | 0.00 | 0.00 | 0.00 | 71 | 1019.3 |
| 20260902155914 | 22 | 187 | 4.8 | 12.9 | 0.00 | 0.00 | 0.00 | 72 | 1019.4 |
| 20260902155744 | 22 | 238 | 6.4 | 12.9 | 0.00 | 0.00 | 0.00 | 74 | 1019.4 |
| 20260902155637 | 22 | 176 | 8.0 | 12.9 | 0.00 | 0.00 | 0.00 | 71 | 1019.4 |
| 20260902155506 | 22 | 217 | 8.0 | 16.1 | 0.00 | 0.00 | 0.00 | 73 | 1019.4 |
| 20260902155429 | 22 | 170 | 8.0 | 14.5 | 0.00 | 0.00 | 0.00 | 73 | 1019.4 |
| 20260902155231 | 22 | 159 | 6.4 | 17.7 | 0.00 | 0.00 | 0.00 | 73 | 1019.4 |
| 20260902155154 | 22 | 205 | 4.8 | 17.7 | 0.00 | 0.00 | 0.00 | 75 | 1019.4 |
| 20260902155042 | 22 | 159 | 6.4 | 17.7 | 0.00 | 0.00 | 0.00 | 72 | 1019.5 |
| 20260902154945 | 22 | 118 | 4.8 | 17.7 | 0.00 | 0.00 | 0.00 | 74 | 1019.5 |
| 20260902154827 | 22 | 172 | 4.8 | 17.7 | 0.00 | 0.00 | 0.00 | 74 | 1019.5 |
| 20260902154748 | 22 | 178 | 4.8 | 17.7 | 0.00 | 0.00 | 0.00 | 74 | 1019.5 |
| 20260902154709 | 22 | 259 | 4.8 | 17.7 | 0.00 | 0.00 | 0.00 | 74 | 1019.5 |
| 20260902154613 | 22 | 186 | 8.0 | 17.7 | 0.00 | 0.00 | 0.00 | 73 | 1019.5 |
| 20260902154536 | 22 | 158 | 11.3 | 17.7 | 0.00 | 0.00 | 0.00 | 73 | 1019.5 |
| 20260902154405 | 22 | 178 | 11.3 | 19.3 | 0.00 | 0.00 | 0.00 | 73 | 1019.5 |
| 20260902154321 | 22 | 164 | 9.7 | 17.7 | 0.00 | 0.00 | 0.00 | 73 | 1019.5 |
| 20260902154129 | 21 | 175 | 9.7 | 17.7 | 0.00 | 0.00 | 0.00 | 73 | 1019.5 |
| 20260902154043 | 21 | 164 | 8.0 | 17.7 | 0.00 | 0.00 | 0.00 | 74 | 1019.5 |
| 20260902153919 | 21 | 174 | 4.8 | 17.7 | 0.00 | 0.00 | 0.00 | 75 | 1019.5 |
| 20260902153840 | 21 | 178 | 8.0 | 17.7 | 0.00 | 0.00 | 0.00 | 73 | 1019.5 |
| 20260902153641 | 21 | 176 | 11.3 | 17.7 | 0.00 | 0.00 | 0.00 | 73 | 1019.5 |
| 20260902153602 | 21 | 123 | 11.3 | 17.7 | 0.00 | 0.00 | 0.00 | 72 | 1019.5 |
| 20260902153506 | 21 | 173 | 9.7 | 17.7 | 0.00 | 0.00 | 0.00 | 73 | 1019.5 |
| 20260902153427 | 21 | 145 | 9.7 | 17.7 | 0.00 | 0.00 | 0.00 | 74 | 1019.5 |
| 20260902153246 | 21 | 104 | 8.0 | 22.5 | 0.00 | 0.00 | 0.00 | 73 | 1019.5 |
| 20260902153146 | 21 | 154 | 8.0 | 22.5 | 0.00 | 0.00 | 0.00 | 73 | 1019.5 |
| 20260902153027 | 21 | 183 | 9.7 | 22.5 | 0.00 | 0.00 | 0.00 | 74 | 1019.5 |
| 20260902152949 | 21 | 172 | 8.0 | 22.5 | 0.00 | 0.00 | 0.00 | 74 | 1019.5 |
| 20260902152731 | 21 | 194 | 8.0 | 22.5 | 0.00 | 0.00 | 0.00 | 74 | 1019.6 |
| 20260902152636 | 21 | 173 | 9.7 | 22.5 | 0.00 | 0.00 | 0.00 | 75 | 1019.5 |
| 20260902152540 | 21 | 127 | 12.9 | 22.5 | 0.00 | 0.00 | 0.00 | 74 | 1019.6 |
| 20260902152501 | 21 | 134 | 12.9 | 22.5 | 0.00 | 0.00 | 0.00 | 75 | 1019.5 |
| 20260902152326 | 21 | 144 | 9.7 | 19.3 | 0.00 | 0.00 | 0.00 | 74 | 1019.5 |
| 20260902152246 | 21 | 203 | 9.7 | 19.3 | 0.00 | 0.00 | 0.00 | 74 | 1019.6 |
| 20260902152207 | 21 | 180 | 8.0 | 19.3 | 0.00 | 0.00 | 0.00 | 74 | 1019.5 |
| 20260902152112 | 21 | 178 | 9.7 | 19.3 | 0.00 | 0.00 | 0.00 | 74 | 1019.5 |
| 20260902152034 | 21 | 209 | 9.7 | 19.3 | 0.00 | 0.00 | 0.00 | 74 | 1019.5 |
| 20260902151903 | 21 | 182 | 8.0 | 14.5 | 0.00 | 0.00 | 0.00 | 76 | 1019.5 |
| 20260902151818 | 21 | 142 | 9.7 | 14.5 | 0.00 | 0.00 | 0.00 | 73 | 1019.5 |
| 20260902151647 | 21 | 138 | 8.0 | 14.5 | 0.00 | 0.00 | 0.00 | 75 | 1019.5 |
| 20260902151551 | 21 | 193 | 6.4 | 16.1 | 0.00 | 0.00 | 0.00 | 75 | 1019.5 |
| 20260902151512 | 21 | 162 | 6.4 | 16.1 | 0.00 | 0.00 | 0.00 | 75 | 1019.5 |
| 20260902151416 | 21 | 148 | 8.0 | 19.3 | 0.00 | 0.00 | 0.00 | 76 | 1019.4 |
| 20260902151316 | 21 | 149 | 9.7 | 19.3 | 0.00 | 0.00 | 0.00 | 75 | 1019.4 |
| 20260902151148 | 21 | 115 | 8.0 | 19.3 | 0.00 | 0.00 | 0.00 | 76 | 1019.4 |
| 20260902151023 | 21 | 162 | 6.4 | 19.3 | 0.00 | 0.00 | 0.00 | 75 | 1019.5 |
| 20260902150926 | 21 | 176 | 6.4 | 19.3 | 0.00 | 0.00 | 0.00 | 75 | 1019.5 |
| 20260902150859 | 21 | 115 | 8.0 | 19.3 | 0.00 | 0.00 | 0.00 | 75 | 1019.4 |
| 20260902150708 | 21 | 168 | 12.9 | 19.3 | 0.00 | 0.00 | 0.00 | 75 | 1019.5 |
| 20260902150624 | 21 | 215 | 12.9 | 22.5 | 0.00 | 0.00 | 0.00 | 75 | 1019.5 |
| 20260902150453 | 21 | 209 | 11.3 | 22.5 | 0.00 | 0.00 | 0.00 | 74 | 1019.5 |
| 20260902150420 | 21 | 173 | 11.3 | 22.5 | 0.00 | 0.00 | 0.00 | 74 | 1019.4 |
| 20260902150241 | 21 | 120 | 11.3 | 22.5 | 0.00 | 0.00 | 0.00 | 74 | 1019.4 |
| 20260902150204 | 21 | 159 | 14.5 | 22.5 | 0.00 | 0.00 | 0.00 | 74 | 1019.4 |
| 20260902150012 | 21 | 177 | 11.3 | 22.5 | 0.00 | 0.00 | 0.00 | 74 | 1019.4 |
| 20260902145906 | 21 | 196 | 11.3 | 22.5 | 0.00 | 0.00 | 0.00 | 75 | 1019.3 |
| 20260902145726 | 21 | 176 | 8.0 | 16.1 | 0.00 | 0.00 | 0.00 | 76 | 1019.5 |
| 20260902145627 | 21 | 148 | 9.7 | 16.1 | 0.00 | 0.00 | 0.00 | 76 | 1019.5 |
| 20260902145429 | 21 | 165 | 8.0 | 14.5 | 0.00 | 0.00 | 0.00 | 75 | 1019.6 |
| 20260902145351 | 21 | 127 | 8.0 | 14.5 | 0.00 | 0.00 | 0.00 | 76 | 1019.6 |
| 20260902145233 | 21 | 179 | 9.7 | 14.5 | 0.00 | 0.00 | 0.00 | 75 | 1019.6 |
| 20260902145157 | 21 | 159 | 9.7 | 14.5 | 0.00 | 0.00 | 0.00 | 75 | 1019.7 |
| 20260902145103 | 21 | 193 | 11.3 | 16.1 | 0.00 | 0.00 | 0.00 | 75 | 1019.7 |
| 20260902145025 | 21 | 141 | 9.7 | 16.1 | 0.00 | 0.00 | 0.00 | 76 | 1019.7 |
| 20260902144828 | 21 | 188 | 6.4 | 16.1 | 0.00 | 0.00 | 0.00 | 75 | 1019.7 |
| 20260902144729 | 21 | 147 | 8.0 | 16.1 | 0.00 | 0.00 | 0.00 | 76 | 1019.8 |
| 20260902144633 | 21 | 190 | 9.7 | 16.1 | 0.00 | 0.00 | 0.00 | 75 | 1019.8 |
| 20260902144556 | 21 | 185 | 9.7 | 16.1 | 0.00 | 0.00 | 0.00 | 75 | 1019.8 |
| 20260902144517 | 21 | 137 | 9.7 | 16.1 | 0.00 | 0.00 | 0.00 | 75 | 1019.9 |
| 20260902144421 | 21 | 167 | 11.3 | 16.1 | 0.00 | 0.00 | 0.00 | 75 | 1019.9 |
| 20260902144322 | 21 | 153 | 11.3 | 16.1 | 0.00 | 0.00 | 0.00 | 75 | 1019.9 |
| 20260902144136 | 21 | 163 | 9.7 | 14.5 | 0.00 | 0.00 | 0.00 | 75 | 1020.0 |
| 20260902144030 | 21 | 157 | 6.4 | 17.7 | 0.00 | 0.00 | 0.00 | 76 | 1019.9 |
| 20260902143951 | 21 | 165 | 4.8 | 17.7 | 0.00 | 0.00 | 0.00 | 76 | 1020.0 |
| 20260902143855 | 21 | 189 | 4.8 | 17.7 | 0.00 | 0.00 | 0.00 | 76 | 1020.0 |
| 20260902143818 | 21 | 156 | 4.8 | 17.7 | 0.00 | 0.00 | 0.00 | 76 | 1020.0 |
| 20260902143647 | 21 | 176 | 4.8 | 17.7 | 0.00 | 0.00 | 0.00 | 77 | 1020.0 |
| 20260902143602 | 20 | 176 | 8.0 | 17.7 | 0.00 | 0.00 | 0.00 | 77 | 1020.1 |
| 20260902143431 | 20 | 187 | 9.7 | 17.7 | 0.00 | 0.00 | 0.00 | 74 | 1020.0 |
| 20260902143332 | 20 | 182 | 11.3 | 17.7 | 0.00 | 0.00 | 0.00 | 74 | 1020.0 |
| 20260902143135 | 20 | 171 | 8.0 | 14.5 | 0.00 | 0.00 | 0.00 | 75 | 1020.0 |
| 20260902143054 | 20 | 169 | 8.0 | 14.5 | 0.00 | 0.00 | 0.00 | 75 | 1020.0 |
| 20260902142940 | 20 | 167 | 8.0 | 14.5 | 0.00 | 0.00 | 0.00 | 76 | 1020.0 |
| 20260902142902 | 20 | 167 | 8.0 | 14.5 | 0.00 | 0.00 | 0.00 | 76 | 1020.0 |
| 20260902142804 | 20 | 223 | 6.4 | 14.5 | 0.00 | 0.00 | 0.00 | 76 | 1019.9 |
| 20260902142705 | 20 | 209 | 3.2 | 12.9 | 0.00 | 0.00 | 0.00 | 77 | 1019.9 |
| 20260902142627 | 20 | 147 | 3.2 | 12.9 | 0.00 | 0.00 | 0.00 | 77 | 1019.9 |
| 20260902142429 | 20 | 174 | 4.8 | 12.9 | 0.00 | 0.00 | 0.00 | 76 | 1019.9 |
| 20260902142331 | 20 | 225 | 4.8 | 12.9 | 0.00 | 0.00 | 0.00 | 76 | 1019.9 |
| 20260902142234 | 20 | 168 | 4.8 | 12.9 | 0.00 | 0.00 | 0.00 | 77 | 1019.9 |
| 20260902142157 | 20 | 191 | 6.4 | 12.9 | 0.00 | 0.00 | 0.00 | 76 | 1019.9 |
| 20260902142026 | 20 | 154 | 6.4 | 12.9 | 0.00 | 0.00 | 0.00 | 76 | 1019.9 |
| 20260902141923 | 20 | 161 | 4.8 | 14.5 | 0.00 | 0.00 | 0.00 | 77 | 1019.9 |
| 20260902141753 | 20 | 213 | 4.8 | 12.9 | 0.00 | 0.00 | 0.00 | 76 | 1020.0 |
| 20260902141714 | 20 | 159 | 4.8 | 12.9 | 0.00 | 0.00 | 0.00 | 76 | 1019.9 |
| 20260902141558 | 20 | 149 | 4.8 | 12.9 | 0.00 | 0.00 | 0.00 | 76 | 1020.0 |
| 20260902141458 | 20 | 119 | 4.8 | 12.9 | 0.00 | 0.00 | 0.00 | 77 | 1019.9 |
| 20260902141327 | 20 | 163 | 6.4 | 19.3 | 0.00 | 0.00 | 0.00 | 76 | 1019.9 |
| 20260902141222 | 20 | 163 | 8.0 | 19.3 | 0.00 | 0.00 | 0.00 | 77 | 1019.9 |
| 20260902141052 | 20 | 192 | 6.4 | 19.3 | 0.00 | 0.00 | 0.00 | 77 | 1019.8 |
| 20260902141015 | 20 | 184 | 4.8 | 19.3 | 0.00 | 0.00 | 0.00 | 78 | 1019.8 |
| 20260902140844 | 20 | 157 | 3.2 | 19.3 | 0.00 | 0.00 | 0.00 | 77 | 1019.8 |
| 20260902140738 | 20 | 159 | 4.8 | 19.3 | 0.00 | 0.00 | 0.00 | 77 | 1019.8 |
| 20260902140625 | 20 | 174 | 9.7 | 19.3 | 0.00 | 0.00 | 0.00 | 76 | 1019.8 |
| 20260902140546 | 20 | 134 | 9.7 | 19.3 | 0.00 | 0.00 | 0.00 | 76 | 1019.8 |
| 20260902140509 | 20 | 152 | 8.0 | 12.9 | 0.00 | 0.00 | 0.00 | 76 | 1019.7 |
| 20260902140413 | 20 | 207 | 4.8 | 9.7 | 0.00 | 0.00 | 0.00 | 77 | 1019.8 |
| 20260902140335 | 20 | 205 | 4.8 | 9.7 | 0.00 | 0.00 | 0.00 | 77 | 1019.8 |
| 20260902140204 | 20 | 171 | 6.4 | 11.3 | 0.00 | 0.00 | 0.00 | 76 | 1019.6 |
| 20260902140118 | 20 | 200 | 4.8 | 11.3 | 0.00 | 0.00 | 0.00 | 76 | 1019.6 |
| 20260902135929 | 20 | 193 | 3.2 | 11.3 | 0.00 | 0.00 | 0.00 | 77 | 1019.5 |
| 20260902135844 | 20 | 196 | 1.6 | 11.3 | 0.00 | 0.00 | 0.00 | 77 | 1019.4 |
| 20260902135634 | 20 | 225 | 3.2 | 11.3 | 0.00 | 0.00 | 0.00 | 77 | 1019.4 |
| 20260902135534 | 20 | 208 | 4.8 | 12.9 | 0.00 | 0.00 | 0.00 | 77 | 1019.4 |
| 20260902135429 | 20 | 188 | 4.8 | 12.9 | 0.00 | 0.00 | 0.00 | 77 | 1019.3 |
| 20260902135350 | 20 | 163 | 4.8 | 12.9 | 0.00 | 0.00 | 0.00 | 78 | 1019.3 |
| 20260902135142 | 20 | 188 | 3.2 | 12.9 | 0.00 | 0.00 | 0.00 | 77 | 1019.4 |
| 20260902135055 | 20 | 188 | 4.8 | 12.9 | 0.00 | 0.00 | 0.00 | 77 | 1019.4 |
| 20260902134833 | 20 | 190 | 6.4 | 12.9 | 0.00 | 0.00 | 0.00 | 77 | 1019.4 |
| 20260902134733 | 20 | 161 | 8.0 | 12.9 | 0.00 | 0.00 | 0.00 | 76 | 1019.4 |
| 20260902134536 | 20 | 153 | 6.4 | 12.9 | 0.00 | 0.00 | 0.00 | 77 | 1019.4 |
| 20260902134457 | 20 | 146 | 6.4 | 9.7 | 0.00 | 0.00 | 0.00 | 76 | 1019.4 |
| 20260902134326 | 20 | 179 | 6.4 | 9.7 | 0.00 | 0.00 | 0.00 | 76 | 1019.4 |
| 20260902134240 | 20 | 193 | 4.8 | 9.7 | 0.00 | 0.00 | 0.00 | 77 | 1019.4 |
| 20260902134110 | 20 | 163 | 3.2 | 8.0 | 0.00 | 0.00 | 0.00 | 76 | 1019.5 |
| 20260902134031 | 20 | 184 | 3.2 | 8.0 | 0.00 | 0.00 | 0.00 | 76 | 1019.5 |
| 20260902133835 | 20 | 196 | 4.8 | 11.3 | 0.00 | 0.00 | 0.00 | 77 | 1019.5 |
| 20260902133755 | 20 | 170 | 4.8 | 11.3 | 0.00 | 0.00 | 0.00 | 77 | 1019.5 |
| 20260902133658 | 20 | 168 | 3.2 | 11.3 | 0.00 | 0.00 | 0.00 | 77 | 1019.5 |
| 20260902133540 | 20 | 113 | 4.8 | 11.3 | 0.00 | 0.00 | 0.00 | 77 | 1019.5 |
| 20260902133442 | 20 | 168 | 4.8 | 11.3 | 0.00 | 0.00 | 0.00 | 76 | 1019.5 |
| 20260902133347 | 20 | 157 | 4.8 | 11.3 | 0.00 | 0.00 | 0.00 | 76 | 1019.5 |
| 20260902133229 | 20 | 157 | 4.8 | 11.3 | 0.00 | 0.00 | 0.00 | 77 | 1019.6 |
| 20260902133149 | 20 | 193 | 4.8 | 11.3 | 0.00 | 0.00 | 0.00 | 76 | 1019.5 |
| 20260902133109 | 20 | 151 | 6.4 | 11.3 | 0.00 | 0.00 | 0.00 | 76 | 1019.6 |
| 20260902133014 | 20 | 122 | 4.8 | 11.3 | 0.00 | 0.00 | 0.00 | 76 | 1019.5 |
| 20260902132914 | 20 | 164 | 4.8 | 11.3 | 0.00 | 0.00 | 0.00 | 76 | 1019.5 |
| 20260902132729 | 20 | 126 | 6.4 | 9.7 | 0.00 | 0.00 | 0.00 | 77 | 1019.4 |
| 20260902132630 | 20 | 172 | 4.8 | 9.7 | 0.00 | 0.00 | 0.00 | 76 | 1019.3 |
| 20260902132523 | 20 | 140 | 6.4 | 11.3 | 0.00 | 0.00 | 0.00 | 76 | 1019.4 |
| 20260902132429 | 20 | 186 | 6.4 | 11.3 | 0.00 | 0.00 | 0.00 | 76 | 1019.3 |
| 20260902132325 | 20 | 165 | 8.0 | 12.9 | 0.00 | 0.00 | 0.00 | 76 | 1019.3 |
| 20260902132246 | 20 | 161 | 6.4 | 12.9 | 0.00 | 0.00 | 0.00 | 76 | 1019.3 |
| 20260902132141 | 20 | 146 | 6.4 | 12.9 | 0.00 | 0.00 | 0.00 | 76 | 1019.3 |
| 20260902132025 | 20 | 136 | 6.4 | 12.9 | 0.00 | 0.00 | 0.00 | 76 | 1019.3 |
| 20260902131947 | 20 | 155 | 4.8 | 12.9 | 0.00 | 0.00 | 0.00 | 76 | 1019.3 |
| 20260902131755 | 20 | 199 | 6.4 | 12.9 | 0.00 | 0.00 | 0.00 | 76 | 1019.3 |
| 20260902131722 | 20 | 195 | 8.0 | 12.9 | 0.00 | 0.00 | 0.00 | 76 | 1019.3 |
| 20260902131532 | 20 | 187 | 8.0 | 12.9 | 0.00 | 0.00 | 0.00 | 75 | 1019.3 |
| 20260902131440 | 21 | 159 | 9.7 | 12.9 | 0.00 | 0.00 | 0.00 | 75 | 1019.2 |
| 20260902131323 | 21 | 178 | 8.0 | 14.5 | 0.00 | 0.00 | 0.00 | 75 | 1019.2 |
| 20260902131244 | 21 | 186 | 8.0 | 14.5 | 0.00 | 0.00 | 0.00 | 76 | 1019.2 |
| 20260902131114 | 21 | 200 | 8.0 | 14.5 | 0.00 | 0.00 | 0.00 | 75 | 1019.0 |
| 20260902131027 | 21 | 163 | 8.0 | 9.7 | 0.00 | 0.00 | 0.00 | 75 | 1019.0 |
| 20260902130857 | 21 | 170 | 4.8 | 12.9 | 0.00 | 0.00 | 0.00 | 76 | 1019.0 |
| 20260902130820 | 21 | 136 | 4.8 | 12.9 | 0.00 | 0.00 | 0.00 | 77 | 1019.0 |
| 20260902130623 | 20 | 146 | 3.2 | 12.9 | 0.00 | 0.00 | 0.00 | 78 | 1019.0 |
| 20260902130525 | 20 | 167 | 4.8 | 12.9 | 0.00 | 0.00 | 0.00 | 77 | 1019.0 |
| 20260902130433 | 20 | 186 | 6.4 | 12.9 | 0.00 | 0.00 | 0.00 | 75 | 1019.0 |
| 20260902130333 | 20 | 144 | 6.4 | 12.9 | 0.00 | 0.00 | 0.00 | 76 | 1019.0 |
| 20260902130136 | 20 | 202 | 8.0 | 12.9 | 0.00 | 0.00 | 0.00 | 76 | 1019.0 |
| 20260902130037 | 20 | 142 | 9.7 | 16.1 | 0.00 | 0.00 | 0.00 | 76 | 1019.1 |
| 20260902125941 | 20 | 200 | 8.0 | 12.9 | 0.00 | 0.00 | 0.00 | 76 | 1019.1 |
| 20260902125902 | 20 | 113 | 6.4 | 11.3 | 0.00 | 0.00 | 0.00 | 76 | 1019.1 |
| 20260902125710 | 20 | 134 | 6.4 | 11.3 | 0.00 | 0.00 | 0.00 | 76 | 1019.1 |
| 20260902125627 | 20 | 171 | 6.4 | 11.3 | 0.00 | 0.00 | 0.00 | 76 | 1019.1 |
| 20260902125456 | 20 | 128 | 4.8 | 11.3 | 0.00 | 0.00 | 0.00 | 76 | 1019.2 |
| 20260902125417 | 20 | 169 | 6.4 | 11.3 | 0.00 | 0.00 | 0.00 | 76 | 1019.2 |
| 20260902125242 | 20 | 180 | 8.0 | 11.3 | 0.00 | 0.00 | 0.00 | 76 | 1019.2 |
| 20260902125203 | 20 | 190 | 8.0 | 11.3 | 0.00 | 0.00 | 0.00 | 76 | 1019.2 |
| 20260902125013 | 20 | 149 | 6.4 | 11.3 | 0.00 | 0.00 | 0.00 | 75 | 1019.2 |
| 20260902124927 | 20 | 159 | 6.4 | 12.9 | 0.00 | 0.00 | 0.00 | 76 | 1019.2 |
| 20260902124759 | 20 | 173 | 6.4 | 12.9 | 0.00 | 0.00 | 0.00 | 76 | 1019.1 |
| 20260902124720 | 20 | 198 | 4.8 | 12.9 | 0.00 | 0.00 | 0.00 | 77 | 1019.1 |
| 20260902124523 | 20 | 213 | 3.2 | 12.9 | 0.00 | 0.00 | 0.00 | 76 | 1019.2 |
| 20260902124446 | 20 | 165 | 4.8 | 12.9 | 0.00 | 0.00 | 0.00 | 76 | 1019.2 |
| 20260902124349 | 20 | 154 | 4.8 | 12.9 | 0.00 | 0.00 | 0.00 | 76 | 1019.2 |
| 20260902124250 | 20 | 172 | 8.0 | 12.9 | 0.00 | 0.00 | 0.00 | 76 | 1019.2 |
| 20260902124031 | 20 | 167 | 6.4 | 12.9 | 0.00 | 0.00 | 0.00 | 76 | 1019.2 |
| 20260902123938 | 20 | 194 | 4.8 | 12.9 | 0.00 | 0.00 | 0.00 | 77 | 1019.2 |
| 20260902123823 | 20 | 214 | 4.8 | 12.9 | 0.00 | 0.00 | 0.00 | 77 | 1019.2 |
| 20260902123744 | 20 | 205 | 4.8 | 12.9 | 0.00 | 0.00 | 0.00 | 77 | 1019.2 |
| 20260902123614 | 20 | 168 | 3.2 | 12.9 | 0.00 | 0.00 | 0.00 | 79 | 1019.2 |
| 20260902123529 | 20 | 255 | 4.8 | 12.9 | 0.00 | 0.00 | 0.00 | 78 | 1019.2 |
| 20260902123340 | 20 | 168 | 8.0 | 12.9 | 0.00 | 0.00 | 0.00 | 77 | 1019.1 |
| 20260902123254 | 20 | 169 | 8.0 | 12.9 | 0.00 | 0.00 | 0.00 | 77 | 1019.2 |
| 20260902123043 | 20 | 209 | 6.4 | 12.9 | 0.00 | 0.00 | 0.00 | 77 | 1019.1 |
| 20260902122941 | 20 | 149 | 6.4 | 12.9 | 0.00 | 0.00 | 0.00 | 78 | 1019.0 |
| 20260902122824 | 20 | 168 | 6.4 | 12.9 | 0.00 | 0.00 | 0.00 | 77 | 1019.1 |
| 20260902122744 | 20 | 175 | 8.0 | 12.9 | 0.00 | 0.00 | 0.00 | 78 | 1019.0 |
| 20260902122615 | 20 | 196 | 6.4 | 12.9 | 0.00 | 0.00 | 0.00 | 77 | 1019.1 |
| 20260902122527 | 20 | 173 | 6.4 | 12.9 | 0.00 | 0.00 | 0.00 | 78 | 1019.1 |
| 20260902122357 | 20 | 147 | 6.4 | 12.9 | 0.00 | 0.00 | 0.00 | 78 | 1019.1 |
| 20260902122320 | 20 | 173 | 3.2 | 14.5 | 0.00 | 0.00 | 0.00 | 80 | 1019.1 |
| 20260902122123 | 20 | 140 | 1.6 | 4.8 | 0.00 | 0.00 | 0.00 | 80 | 1019.1 |
| 20260902122026 | 20 | 163 | 1.6 | 4.8 | 0.00 | 0.00 | 0.00 | 82 | 1019.1 |
| 20260902121904 | 20 | 162 | 1.6 | 4.8 | 0.00 | 0.00 | 0.00 | 81 | 1019.2 |
| 20260902121830 | 20 | 162 | 1.6 | 4.8 | 0.00 | 0.00 | 0.00 | 81 | 1019.2 |
| 20260902121632 | 19 | 162 | 1.6 | 6.4 | 0.00 | 0.00 | 0.00 | 80 | 1019.2 |
| 20260902121533 | 19 | 155 | 0.0 | 4.8 | 0.00 | 0.00 | 0.00 | 80 | 1019.2 |
| 20260902121437 | 19 | 151 | 0.0 | 4.8 | 0.00 | 0.00 | 0.00 | 81 | 1019.2 |
| 20260902121357 | 19 | 151 | 0.0 | 4.8 | 0.00 | 0.00 | 0.00 | 81 | 1019.2 |
| 20260902121319 | 19 | 151 | 1.6 | 4.8 | 0.00 | 0.00 | 0.00 | 80 | 1019.2 |
| 20260902121142 | 19 | 151 | 0.0 | 4.8 | 0.00 | 0.00 | 0.00 | 81 | 1019.2 |
| 20260902121103 | 19 | 151 | 0.0 | 4.8 | 0.00 | 0.00 | 0.00 | 81 | 1019.2 |
| 20260902121029 | 19 | 151 | 1.6 | 4.8 | 0.00 | 0.00 | 0.00 | 81 | 1019.2 |
| 20260902120908 | 19 | 151 | 1.6 | 4.8 | 0.00 | 0.00 | 0.00 | 81 | 1019.3 |
| 20260902120834 | 19 | 152 | 1.6 | 4.8 | 0.00 | 0.00 | 0.00 | 81 | 1019.3 |
| 20260902120636 | 19 | 152 | 1.6 | 3.2 | 0.00 | 0.00 | 0.00 | 80 | 1019.4 |
| 20260902120540 | 19 | 152 | 1.6 | 3.2 | 0.00 | 0.00 | 0.00 | 81 | 1019.4 |
| 20260902120439 | 19 | 152 | 1.6 | 4.8 | 0.00 | 0.00 | 0.00 | 82 | 1019.4 |
| 20260902120340 | 19 | 152 | 1.6 | 4.8 | 0.00 | 0.00 | 0.00 | 82 | 1019.4 |
| 20260902120209 | 19 | 152 | 1.6 | 4.8 | 0.00 | 0.00 | 0.00 | 81 | 1019.5 |
| 20260902120124 | 19 | 152 | 1.6 | 4.8 | 0.00 | 0.00 | 0.00 | 81 | 1019.5 |
| 20260902115935 | 19 | 151 | 0.0 | 4.8 | 0.00 | 0.00 | 0.00 | 82 | 1019.4 |
| 20260902115829 | 19 | 151 | 0.0 | 4.8 | 0.00 | 0.00 | 0.00 | 81 | 1019.4 |
| 20260902115755 | 19 | 151 | 0.0 | 4.8 | 0.00 | 0.00 | 0.00 | 81 | 1019.4 |
| 20260902115657 | 19 | 151 | 1.6 | 4.8 | 0.00 | 0.00 | 0.00 | 81 | 1019.4 |
| 20260902115619 | 19 | 151 | 1.6 | 4.8 | 0.00 | 0.00 | 0.00 | 81 | 1019.4 |
| 20260902115447 | 19 | 189 | 1.6 | 4.8 | 0.00 | 0.00 | 0.00 | 81 | 1019.4 |
| 20260902115342 | 19 | 162 | 3.2 | 4.8 | 0.00 | 0.00 | 0.00 | 81 | 1019.4 |
| 20260902115225 | 19 | 162 | 3.2 | 4.8 | 0.00 | 0.00 | 0.00 | 81 | 1019.4 |
| 20260902115146 | 19 | 146 | 1.6 | 4.8 | 0.00 | 0.00 | 0.00 | 81 | 1019.3 |
| 20260902115108 | 19 | 180 | 1.6 | 4.8 | 0.00 | 0.00 | 0.00 | 81 | 1019.3 |
| 20260902115010 | 19 | 180 | 0.0 | 4.8 | 0.00 | 0.00 | 0.00 | 82 | 1019.3 |
| 20260902114932 | 19 | 180 | 0.0 | 4.8 | 0.00 | 0.00 | 0.00 | 82 | 1019.3 |
| 20260902114719 | 19 | 213 | 0.0 | 4.8 | 0.00 | 0.00 | 0.00 | 82 | 1019.4 |
| 20260902114624 | 19 | 213 | 1.6 | 4.8 | 0.00 | 0.00 | 0.00 | 81 | 1019.4 |
| 20260902114525 | 19 | 213 | 1.6 | 4.8 | 0.00 | 0.00 | 0.00 | 81 | 1019.4 |
| 20260902114447 | 19 | 211 | 1.6 | 4.8 | 0.00 | 0.00 | 0.00 | 82 | 1019.4 |
| 20260902114328 | 19 | 211 | 1.6 | 4.8 | 0.00 | 0.00 | 0.00 | 81 | 1019.4 |
| 20260902114250 | 19 | 207 | 0.0 | 4.8 | 0.00 | 0.00 | 0.00 | 82 | 1019.4 |
| 20260902114056 | 19 | 207 | 0.0 | 4.8 | 0.00 | 0.00 | 0.00 | 82 | 1019.3 |
| 20260902114012 | 19 | 207 | 0.0 | 4.8 | 0.00 | 0.00 | 0.00 | 82 | 1019.3 |
| 20260902113800 | 19 | 207 | 0.0 | 4.8 | 0.00 | 0.00 | 0.00 | 81 | 1019.3 |
| 20260902113722 | 18 | 225 | 0.0 | 4.8 | 0.00 | 0.00 | 0.00 | 82 | 1019.3 |
| 20260902113528 | 18 | 225 | 1.6 | 4.8 | 0.00 | 0.00 | 0.00 | 82 | 1019.3 |
| 20260902113449 | 18 | 225 | 3.2 | 4.8 | 0.00 | 0.00 | 0.00 | 82 | 1019.3 |
| 20260902113332 | 18 | 224 | 1.6 | 4.8 | 0.00 | 0.00 | 0.00 | 83 | 1019.4 |
| 20260902113253 | 18 | 158 | 0.0 | 1.6 | 0.00 | 0.00 | 0.00 | 85 | 1019.3 |
| 20260902113034 | 18 | 158 | 0.0 | 1.6 | 0.00 | 0.00 | 0.00 | 83 | 1019.2 |
| 20260902112935 | 18 | 158 | 0.0 | 1.6 | 0.00 | 0.00 | 0.00 | 84 | 1019.3 |
| 20260902112836 | 18 | 158 | 0.0 | 1.6 | 0.00 | 0.00 | 0.00 | 84 | 1019.3 |
| 20260902112758 | 18 | 158 | 0.0 | 0.0 | 0.00 | 0.00 | 0.00 | 85 | 1019.3 |
| 20260902112628 | 18 | 158 | 0.0 | 0.0 | 0.00 | 0.00 | 0.00 | 84 | 1019.3 |
| 20260902112527 | 18 | 158 | 0.0 | 0.0 | 0.00 | 0.00 | 0.00 | 83 | 1019.3 |
| 20260902112356 | 18 | 158 | 0.0 | 0.0 | 0.00 | 0.00 | 0.00 | 83 | 1019.3 |
| 20260902112317 | 18 | 158 | 0.0 | 0.0 | 0.00 | 0.00 | 0.00 | 84 | 1019.3 |
| 20260902112159 | 18 | 158 | 0.0 | 0.0 | 0.00 | 0.00 | 0.00 | 84 | 1019.3 |
| 20260902112122 | 18 | 158 | 0.0 | 0.0 | 0.00 | 0.00 | 0.00 | 84 | 1019.3 |
| 20260902112044 | 18 | 158 | 0.0 | 0.0 | 0.00 | 0.00 | 0.00 | 83 | 1019.3 |
| 20260902111908 | 18 | 158 | 0.0 | 0.0 | 0.00 | 0.00 | 0.00 | 85 | 1019.3 |
| 20260902111829 | 18 | 158 | 0.0 | 0.0 | 0.00 | 0.00 | 0.00 | 84 | 1019.3 |
| 20260902111659 | 18 | 158 | 0.0 | 0.0 | 0.00 | 0.00 | 0.00 | 85 | 1019.4 |
| 20260902111531 | 18 | 158 | 0.0 | 0.0 | 0.00 | 0.00 | 0.00 | 85 | 1019.4 |
| 20260902111433 | 18 | 158 | 0.0 | 3.2 | 0.00 | 0.00 | 0.00 | 84 | 1019.4 |
| 20260902111330 | 18 | 158 | 0.0 | 3.2 | 0.00 | 0.00 | 0.00 | 84 | 1019.4 |
| 20260902111250 | 18 | 158 | 0.0 | 3.2 | 0.00 | 0.00 | 0.00 | 84 | 1019.4 |
| 20260902111154 | 18 | 158 | 0.0 | 3.2 | 0.00 | 0.00 | 0.00 | 84 | 1019.4 |
| 20260902111117 | 18 | 158 | 0.0 | 3.2 | 0.00 | 0.00 | 0.00 | 83 | 1019.4 |
| 20260902110946 | 18 | 158 | 0.0 | 3.2 | 0.00 | 0.00 | 0.00 | 83 | 1019.4 |
| 20260902110841 | 18 | 158 | 0.0 | 3.2 | 0.00 | 0.00 | 0.00 | 84 | 1019.4 |
| 20260902110724 | 18 | 158 | 0.0 | 3.2 | 0.00 | 0.00 | 0.00 | 83 | 1019.3 |
| 20260902110644 | 18 | 158 | 0.0 | 3.2 | 0.00 | 0.00 | 0.00 | 83 | 1019.3 |
| 20260902110606 | 18 | 158 | 0.0 | 3.2 | 0.00 | 0.00 | 0.00 | 84 | 1019.4 |
| 20260902110510 | 18 | 158 | 0.0 | 1.6 | 0.00 | 0.00 | 0.00 | 84 | 1019.4 |
| 20260902110437 | 18 | 158 | 0.0 | 1.6 | 0.00 | 0.00 | 0.00 | 84 | 1019.4 |
| 20260902110307 | 18 | 158 | 0.0 | 1.6 | 0.00 | 0.00 | 0.00 | 83 | 1019.4 |
| 20260902110229 | 18 | 158 | 0.0 | 1.6 | 0.00 | 0.00 | 0.00 | 83 | 1019.4 |
| 20260902110031 | 18 | 158 | 0.0 | 3.2 | 0.00 | 0.00 | 0.00 | 84 | 1019.5 |
| 20260902105952 | 18 | 158 | 0.0 | 3.2 | 0.00 | 0.00 | 0.00 | 83 | 1019.4 |
| 20260902105855 | 18 | 158 | 0.0 | 3.2 | 0.00 | 0.05 | 0.00 | 84 | 1019.4 |
| 20260902105817 | 18 | 158 | 0.0 | 3.2 | 0.00 | 0.05 | 0.00 | 84 | 1019.4 |
| 20260902105646 | 18 | 158 | 0.0 | 3.2 | 0.00 | 0.05 | 0.00 | 84 | 1019.4 |
| 20260902105540 | 18 | 158 | 0.0 | 3.2 | 0.00 | 0.05 | 0.00 | 83 | 1019.4 |
| 20260902105440 | 18 | 158 | 0.0 | 3.2 | 0.00 | 0.05 | 0.00 | 83 | 1019.4 |
| 20260902105354 | 18 | 158 | 0.0 | 3.2 | 0.00 | 0.05 | 0.00 | 83 | 1019.4 |
| 20260902105322 | 18 | 158 | 0.0 | 3.2 | 0.00 | 0.05 | 0.00 | 83 | 1019.4 |
| 20260902105243 | 18 | 158 | 0.0 | 1.6 | 0.00 | 0.05 | 0.00 | 84 | 1019.4 |
| 20260902105105 | 18 | 158 | 0.0 | 1.6 | 0.00 | 0.05 | 0.00 | 84 | 1019.4 |
| 20260902105027 | 18 | 158 | 0.0 | 1.6 | 0.00 | 0.05 | 0.00 | 84 | 1019.4 |
| 20260902104838 | 18 | 158 | 0.0 | 1.6 | 0.00 | 0.05 | 0.00 | 84 | 1019.4 |
| 20260902104720 | 18 | 158 | 0.0 | 1.6 | 0.00 | 0.05 | 0.00 | 83 | 1019.4 |
| 20260902104651 | 18 | 158 | 0.0 | 3.2 | 0.00 | 0.05 | 0.00 | 83 | 1019.4 |
| 20260902104554 | 18 | 158 | 0.0 | 3.2 | 0.00 | 0.05 | 0.00 | 83 | 1019.3 |
| 20260902104514 | 18 | 158 | 0.0 | 3.2 | 0.00 | 0.05 | 0.00 | 82 | 1019.4 |
| 20260902104414 | 18 | 158 | 0.0 | 3.2 | 0.00 | 0.05 | 0.00 | 82 | 1019.4 |
| 20260902104319 | 18 | 158 | 0.0 | 3.2 | 0.00 | 0.05 | 0.00 | 83 | 1019.3 |
| 20260902104244 | 18 | 158 | 0.0 | 3.2 | 0.00 | 0.05 | 0.00 | 83 | 1019.3 |
| 20260902104115 | 18 | 158 | 0.0 | 3.2 | 0.00 | 0.05 | 0.00 | 83 | 1019.2 |
| 20260902104009 | 18 | 158 | 0.0 | 4.8 | 0.00 | 0.05 | 0.00 | 83 | 1019.2 |
| 20260902103816 | 18 | 158 | 0.0 | 4.8 | 0.00 | 0.05 | 0.00 | 83 | 1019.2 |
| 20260902103738 | 18 | 158 | 0.0 | 4.8 | 0.00 | 0.05 | 0.00 | 83 | 1019.2 |
| 20260902103606 | 18 | 158 | 0.0 | 4.8 | 0.00 | 0.05 | 0.00 | 82 | 1019.2 |
| 20260902103531 | 18 | 158 | 1.6 | 4.8 | 0.00 | 0.05 | 0.00 | 82 | 1019.2 |
| 20260902103401 | 18 | 158 | 1.6 | 4.8 | 0.00 | 0.05 | 0.00 | 83 | 1019.1 |
| 20260902103322 | 18 | 158 | 3.2 | 4.8 | 0.00 | 0.05 | 0.00 | 83 | 1019.1 |
| 20260902103053 | 18 | 159 | 1.6 | 4.8 | 0.00 | 0.05 | 0.00 | 82 | 1019.1 |
| 20260902103027 | 18 | 159 | 1.6 | 4.8 | 0.00 | 0.05 | 0.00 | 83 | 1019.1 |
| 20260902102855 | 18 | 204 | 0.0 | 4.8 | 0.00 | 0.05 | 0.00 | 83 | 1019.2 |
| 20260902102749 | 18 | 204 | 1.6 | 4.8 | 0.00 | 0.05 | 0.00 | 83 | 1019.2 |
| 20260902102622 | 18 | 204 | 1.6 | 6.4 | 0.00 | 0.05 | 0.00 | 84 | 1019.2 |
| 20260902102523 | 18 | 178 | 1.6 | 6.4 | 0.00 | 0.05 | 0.00 | 83 | 1019.2 |
| 20260902102326 | 18 | 178 | 1.6 | 6.4 | 0.00 | 0.05 | 0.00 | 83 | 1019.2 |
| 20260902102248 | 18 | 178 | 1.6 | 6.4 | 0.00 | 0.05 | 0.00 | 83 | 1019.1 |
| 20260902102131 | 18 | 171 | 1.6 | 6.4 | 0.00 | 0.05 | 0.00 | 82 | 1019.1 |
| 20260902102051 | 18 | 169 | 0.0 | 6.4 | 0.00 | 0.05 | 0.00 | 84 | 1019.1 |
| 20260902102013 | 18 | 169 | 1.6 | 6.4 | 0.00 | 0.05 | 0.00 | 83 | 1019.0 |
| 20260902101853 | 18 | 169 | 3.2 | 6.4 | 0.00 | 0.05 | 0.00 | 82 | 1019.0 |
| 20260902101753 | 18 | 169 | 3.2 | 6.4 | 0.00 | 0.05 | 0.00 | 83 | 1019.0 |
| 20260902101715 | 18 | 175 | 1.6 | 4.8 | 0.00 | 0.05 | 0.00 | 83 | 1019.0 |
| 20260902101619 | 18 | 154 | 1.6 | 4.8 | 0.00 | 0.05 | 0.00 | 83 | 1019.0 |
| 20260902101544 | 18 | 154 | 0.0 | 6.4 | 0.00 | 0.05 | 0.00 | 83 | 1019.0 |
| 20260902101415 | 18 | 154 | 1.6 | 6.4 | 0.00 | 0.05 | 0.00 | 83 | 1019.0 |
| 20260902101329 | 18 | 154 | 1.6 | 6.4 | 0.00 | 0.05 | 0.00 | 83 | 1019.0 |
| 20260902101140 | 18 | 151 | 3.2 | 6.4 | 0.00 | 0.05 | 0.00 | 83 | 1019.0 |
| 20260902101035 | 18 | 146 | 1.6 | 6.4 | 0.00 | 0.05 | 0.00 | 83 | 1019.0 |
| 20260902100929 | 18 | 174 | 1.6 | 6.4 | 0.00 | 0.05 | 0.00 | 83 | 1019.0 |
| 20260902100831 | 18 | 169 | 1.6 | 6.4 | 0.00 | 0.05 | 0.00 | 83 | 1019.0 |
| 20260902100731 | 18 | 169 | 1.6 | 6.4 | 0.00 | 0.05 | 0.00 | 83 | 1019.0 |
| 20260902100636 | 18 | 174 | 1.6 | 4.8 | 0.00 | 0.05 | 0.00 | 83 | 1019.0 |
| 20260902100557 | 18 | 174 | 1.6 | 4.8 | 0.00 | 0.05 | 0.00 | 84 | 1018.9 |
| 20260902100500 | 18 | 174 | 0.0 | 4.8 | 0.00 | 0.05 | 0.00 | 83 | 1019.0 |
| 20260902100422 | 18 | 174 | 0.0 | 4.8 | 0.00 | 0.05 | 0.00 | 83 | 1019.0 |
| 20260902100224 | 18 | 174 | 1.6 | 4.8 | 0.00 | 0.05 | 0.00 | 83 | 1018.9 |
| 20260902100125 | 18 | 161 | 0.0 | 4.8 | 0.00 | 0.05 | 0.00 | 83 | 1019.0 |
| 20260902100029 | 18 | 161 | 1.6 | 4.8 | 0.00 | 0.05 | 0.00 | 83 | 1018.9 |
| 20260902095951 | 18 | 161 | 1.6 | 4.8 | 0.00 | 0.05 | 0.00 | 83 | 1018.9 |
| 20260902095820 | 18 | 191 | 1.6 | 4.8 | 0.00 | 0.05 | 0.00 | 83 | 1018.9 |
| 20260902095734 | 18 | 191 | 1.6 | 4.8 | 0.00 | 0.05 | 0.00 | 83 | 1018.9 |
| 20260902095602 | 18 | 191 | 1.6 | 4.8 | 0.00 | 0.05 | 0.00 | 83 | 1018.9 |
| 20260902095529 | 18 | 194 | 1.6 | 4.8 | 0.00 | 0.05 | 0.00 | 83 | 1018.9 |
| 20260902095331 | 18 | 171 | 1.6 | 4.8 | 0.00 | 0.05 | 0.00 | 83 | 1018.8 |
| 20260902095252 | 18 | 171 | 3.2 | 4.8 | 0.00 | 0.05 | 0.00 | 83 | 1018.8 |
| 20260902095155 | 18 | 179 | 3.2 | 4.8 | 0.00 | 0.05 | 0.00 | 83 | 1018.8 |
| 20260902095036 | 18 | 186 | 1.6 | 4.8 | 0.00 | 0.05 | 0.00 | 84 | 1018.8 |
| 20260902094958 | 18 | 165 | 0.0 | 4.8 | 0.00 | 0.05 | 0.00 | 84 | 1018.8 |
| 20260902094900 | 18 | 165 | 0.0 | 8.0 | 0.00 | 0.05 | 0.00 | 84 | 1018.8 |
| 20260902094822 | 18 | 165 | 0.0 | 8.0 | 0.00 | 0.05 | 0.00 | 84 | 1018.8 |
| 20260902094626 | 18 | 165 | 1.6 | 8.0 | 0.00 | 0.05 | 0.00 | 83 | 1018.7 |
| 20260902094532 | 18 | 165 | 1.6 | 8.0 | 0.00 | 0.05 | 0.00 | 84 | 1018.8 |
| 20260902094436 | 18 | 159 | 3.2 | 8.0 | 0.00 | 0.05 | 0.00 | 84 | 1018.7 |
| 20260902094336 | 18 | 157 | 3.2 | 8.0 | 0.00 | 0.05 | 0.00 | 84 | 1018.7 |
| 20260902094207 | 18 | 200 | 3.2 | 8.0 | 0.00 | 0.05 | 0.00 | 85 | 1018.7 |
| 20260902094121 | 18 | 194 | 3.2 | 8.0 | 0.00 | 0.05 | 0.00 | 85 | 1018.7 |
| 20260902093931 | 18 | 171 | 1.6 | 3.2 | 0.00 | 0.05 | 0.00 | 84 | 1018.8 |
| 20260902093847 | 18 | 171 | 0.0 | 3.2 | 0.00 | 0.05 | 0.00 | 84 | 1018.8 |
| 20260902093715 | 18 | 193 | 0.0 | 3.2 | 0.00 | 0.05 | 0.00 | 84 | 1018.8 |
| 20260902093638 | 18 | 193 | 0.0 | 3.2 | 0.00 | 0.05 | 0.00 | 85 | 1018.8 |
| 20260902093440 | 18 | 193 | 0.0 | 3.2 | 0.00 | 0.05 | 0.00 | 85 | 1018.9 |
| 20260902093346 | 18 | 192 | 0.0 | 3.2 | 0.00 | 0.05 | 0.00 | 85 | 1018.9 |
| 20260902093251 | 18 | 191 | 0.0 | 3.2 | 0.00 | 0.05 | 0.00 | 85 | 1018.9 |
| 20260902093212 | 18 | 191 | 0.0 | 3.2 | 0.00 | 0.05 | 0.00 | 85 | 1018.9 |
| 20260902093112 | 18 | 191 | 0.0 | 3.2 | 0.00 | 0.05 | 0.00 | 85 | 1018.9 |
| 20260902093014 | 18 | 191 | 1.6 | 3.2 | 0.00 | 0.05 | 0.00 | 85 | 1018.9 |
| 20260902092936 | 18 | 191 | 1.6 | 3.2 | 0.00 | 0.05 | 0.00 | 85 | 1018.9 |
| 20260902092806 | 18 | 163 | 1.6 | 3.2 | 0.00 | 0.05 | 0.00 | 84 | 1018.9 |
| 20260902092722 | 18 | 165 | 0.0 | 4.8 | 0.00 | 0.05 | 0.00 | 86 | 1018.9 |
| 20260902092644 | 18 | 148 | 0.0 | 1.6 | 0.00 | 0.05 | 0.00 | 86 | 1018.9 |
| 20260902092513 | 18 | 148 | 0.0 | 1.6 | 0.00 | 0.05 | 0.00 | 85 | 1018.8 |
| 20260902092428 | 18 | 148 | 0.0 | 1.6 | 0.00 | 0.05 | 0.00 | 86 | 1018.8 |
| 20260902092259 | 18 | 148 | 0.0 | 1.6 | 0.00 | 0.05 | 0.00 | 85 | 1018.8 |
| 20260902092220 | 18 | 148 | 0.0 | 1.6 | 0.00 | 0.05 | 0.00 | 86 | 1018.8 |
| 20260902092027 | 18 | 148 | 0.0 | 1.6 | 0.00 | 0.05 | 0.00 | 86 | 1018.8 |
| 20260902091929 | 18 | 148 | 0.0 | 1.6 | 0.00 | 0.05 | 0.00 | 86 | 1018.8 |
| 20260902091833 | 18 | 148 | 0.0 | 1.6 | 0.00 | 0.05 | 0.00 | 86 | 1018.8 |
| 20260902091755 | 18 | 148 | 0.0 | 1.6 | 0.00 | 0.05 | 0.00 | 86 | 1018.7 |
| 20260902091604 | 18 | 148 | 0.0 | 0.0 | 0.00 | 0.05 | 0.00 | 86 | 1018.7 |
| 20260902091520 | 18 | 148 | 0.0 | 1.6 | 0.00 | 0.05 | 0.00 | 86 | 1018.7 |
| 20260902091319 | 18 | 148 | 0.0 | 1.6 | 0.00 | 0.05 | 0.00 | 86 | 1018.7 |
| 20260902091141 | 18 | 148 | 0.0 | 1.6 | 0.00 | 0.05 | 0.00 | 86 | 1018.8 |
| 20260902091042 | 18 | 148 | 0.0 | 3.2 | 0.00 | 0.05 | 0.00 | 86 | 1018.8 |
| 20260902090928 | 18 | 148 | 0.0 | 3.2 | 0.00 | 0.05 | 0.00 | 85 | 1018.8 |
| 20260902090859 | 18 | 148 | 0.0 | 4.8 | 0.00 | 0.05 | 0.00 | 86 | 1018.8 |
| 20260902090758 | 18 | 148 | 0.0 | 4.8 | 0.00 | 0.05 | 0.00 | 85 | 1018.8 |
| 20260902090641 | 18 | 148 | 0.0 | 4.8 | 0.00 | 0.05 | 0.00 | 85 | 1018.8 |
| 20260902090541 | 18 | 148 | 0.0 | 4.8 | 0.00 | 0.05 | 0.00 | 85 | 1018.8 |
| 20260902090456 | 18 | 148 | 0.0 | 4.8 | 0.00 | 0.05 | 0.00 | 86 | 1018.8 |
| 20260902090428 | 18 | 148 | 0.0 | 4.8 | 0.00 | 0.05 | 0.00 | 85 | 1018.8 |
| 20260902090226 | 18 | 175 | 1.6 | 4.8 | 0.00 | 0.05 | 0.00 | 85 | 1018.8 |
| 20260902090120 | 18 | 175 | 1.6 | 4.8 | 0.00 | 0.05 | 0.00 | 85 | 1018.7 |
| 20260902085948 | 18 | 159 | 1.6 | 4.8 | 0.00 | 0.05 | 0.00 | 86 | 1018.7 |
| 20260902085849 | 18 | 159 | 0.0 | 4.8 | 0.00 | 0.05 | 0.00 | 86 | 1018.7 |
| 20260902085715 | 18 | 159 | 0.0 | 4.8 | 0.00 | 0.05 | 0.00 | 87 | 1018.7 |
| 20260902085648 | 18 | 159 | 0.0 | 4.8 | 0.00 | 0.05 | 0.00 | 86 | 1018.7 |
| 20260902085510 | 18 | 159 | 0.0 | 4.8 | 0.00 | 0.05 | 0.00 | 86 | 1018.6 |
| 20260902085433 | 18 | 159 | 0.0 | 4.8 | 0.00 | 0.05 | 0.00 | 86 | 1018.6 |
| 20260902085305 | 18 | 159 | 1.6 | 4.8 | 0.00 | 0.05 | 0.00 | 85 | 1018.6 |
| 20260902085201 | 18 | 159 | 0.0 | 4.8 | 0.00 | 0.05 | 0.00 | 86 | 1018.6 |
| 20260902085043 | 18 | 159 | 0.0 | 3.2 | 0.00 | 0.05 | 0.00 | 87 | 1018.6 |
| 20260902085003 | 18 | 159 | 0.0 | 3.2 | 0.00 | 0.05 | 0.00 | 86 | 1018.5 |
| 20260902084903 | 18 | 159 | 0.0 | 3.2 | 0.00 | 0.05 | 0.00 | 86 | 1018.6 |
| 20260902084806 | 18 | 159 | 0.0 | 3.2 | 0.00 | 0.05 | 0.00 | 86 | 1018.6 |
| 20260902084727 | 18 | 159 | 0.0 | 3.2 | 0.00 | 0.05 | 0.00 | 86 | 1018.6 |
| 20260902084557 | 18 | 159 | 0.0 | 3.2 | 0.00 | 0.05 | 0.00 | 86 | 1018.6 |
| 20260902084517 | 18 | 159 | 0.0 | 3.2 | 0.00 | 0.05 | 0.00 | 86 | 1018.6 |
| 20260902084347 | 18 | 159 | 0.0 | 3.2 | 0.00 | 0.05 | 0.00 | 86 | 1018.6 |
| 20260902084308 | 18 | 159 | 0.0 | 3.2 | 0.00 | 0.05 | 0.00 | 86 | 1018.7 |
| 20260902084137 | 18 | 159 | 0.0 | 3.2 | 0.00 | 0.05 | 0.00 | 86 | 1018.7 |
| 20260902084032 | 18 | 159 | 0.0 | 3.2 | 0.00 | 0.05 | 0.00 | 86 | 1018.7 |
| 20260902083911 | 18 | 159 | 1.6 | 3.2 | 0.00 | 0.05 | 0.00 | 85 | 1018.7 |
| 20260902083833 | 18 | 159 | 0.0 | 3.2 | 0.00 | 0.05 | 0.00 | 86 | 1018.7 |
| 20260902083635 | 18 | 159 | 0.0 | 4.8 | 0.00 | 0.05 | 0.00 | 86 | 1018.7 |
| 20260902083556 | 18 | 159 | 0.0 | 4.8 | 0.00 | 0.05 | 0.00 | 86 | 1018.7 |
| 20260902083458 | 18 | 159 | 0.0 | 4.8 | 0.00 | 0.05 | 0.00 | 85 | 1018.7 |
| 20260902083358 | 18 | 159 | 0.0 | 4.8 | 0.00 | 0.05 | 0.00 | 85 | 1018.6 |
| 20260902083224 | 18 | 159 | 0.0 | 4.8 | 0.00 | 0.05 | 0.00 | 85 | 1018.6 |
| 20260902083144 | 18 | 159 | 1.6 | 4.8 | 0.00 | 0.05 | 0.00 | 85 | 1018.6 |
| 20260902083105 | 18 | 159 | 1.6 | 4.8 | 0.00 | 0.05 | 0.00 | 85 | 1018.6 |
| 20260902083007 | 18 | 159 | 3.2 | 4.8 | 0.00 | 0.05 | 0.00 | 85 | 1018.7 |
| 20260902082928 | 18 | 159 | 3.2 | 4.8 | 0.00 | 0.05 | 0.00 | 85 | 1018.7 |
| 20260902082747 | 18 | 158 | 0.0 | 4.8 | 0.00 | 0.05 | 0.00 | 86 | 1018.6 |
| 20260902082641 | 18 | 158 | 0.0 | 4.8 | 0.00 | 0.05 | 0.00 | 86 | 1018.6 |
| 20260902082510 | 18 | 158 | 0.0 | 4.8 | 0.00 | 0.05 | 0.00 | 85 | 1018.6 |
| 20260902082431 | 18 | 158 | 0.0 | 4.8 | 0.00 | 0.05 | 0.00 | 85 | 1018.6 |
| 20260902082208 | 18 | 158 | 1.6 | 4.8 | 0.00 | 0.05 | 0.00 | 85 | 1018.7 |
| 20260902082123 | 18 | 158 | 1.6 | 4.8 | 0.00 | 0.05 | 0.00 | 85 | 1018.7 |
| 20260902081932 | 18 | 182 | 1.6 | 4.8 | 0.00 | 0.05 | 0.00 | 86 | 1018.7 |
| 20260902081830 | 18 | 182 | 1.6 | 4.8 | 0.00 | 0.05 | 0.00 | 86 | 1018.7 |
| 20260902081751 | 18 | 182 | 3.2 | 4.8 | 0.00 | 0.05 | 0.00 | 86 | 1018.6 |
| 20260902081654 | 18 | 182 | 3.2 | 4.8 | 0.00 | 0.05 | 0.00 | 86 | 1018.7 |
| 20260902081616 | 18 | 182 | 3.2 | 4.8 | 0.00 | 0.05 | 0.00 | 86 | 1018.6 |
| 20260902081419 | 18 | 167 | 1.6 | 3.2 | 0.00 | 0.05 | 0.00 | 86 | 1018.6 |
| 20260902081330 | 18 | 167 | 0.0 | 4.8 | 0.00 | 0.05 | 0.00 | 86 | 1018.7 |
| 20260902081233 | 18 | 167 | 0.0 | 1.6 | 0.00 | 0.05 | 0.00 | 86 | 1018.7 |
| 20260902081155 | 18 | 167 | 0.0 | 1.6 | 0.00 | 0.05 | 0.00 | 86 | 1018.7 |
| 20260902081004 | 18 | 167 | 0.0 | 1.6 | 0.00 | 0.05 | 0.00 | 86 | 1018.8 |
| 20260902080921 | 18 | 167 | 0.0 | 4.8 | 0.00 | 0.05 | 0.00 | 86 | 1018.8 |
| 20260902080803 | 18 | 167 | 0.0 | 4.8 | 0.00 | 0.05 | 0.00 | 86 | 1018.8 |
| 20260902080703 | 18 | 167 | 0.0 | 4.8 | 0.00 | 0.05 | 0.00 | 86 | 1018.7 |
| 20260902080526 | 18 | 167 | 0.0 | 4.8 | 0.00 | 0.05 | 0.00 | 86 | 1018.7 |
| 20260902080448 | 18 | 167 | 0.0 | 4.8 | 0.00 | 0.05 | 0.00 | 86 | 1018.7 |
| 20260902080318 | 18 | 167 | 0.0 | 4.8 | 0.00 | 0.05 | 0.00 | 86 | 1018.7 |
| 20260902080234 | 18 | 167 | 0.0 | 4.8 | 0.00 | 0.05 | 0.00 | 86 | 1018.7 |
| 20260902080042 | 18 | 167 | 1.6 | 6.4 | 0.00 | 0.05 | 0.00 | 86 | 1018.7 |
| 20260902075957 | 18 | 167 | 1.6 | 4.8 | 0.00 | 0.05 | 0.00 | 86 | 1018.7 |
| 20260902075856 | 18 | 167 | 1.6 | 4.8 | 0.00 | 0.05 | 0.00 | 86 | 1018.7 |
| 20260902075817 | 18 | 169 | 1.6 | 6.4 | 0.00 | 0.05 | 0.00 | 87 | 1018.7 |
| 20260902075700 | 18 | 190 | 0.0 | 3.2 | 0.00 | 0.05 | 0.00 | 87 | 1018.7 |
| 20260902075626 | 18 | 190 | 0.0 | 3.2 | 0.00 | 0.05 | 0.00 | 87 | 1018.7 |
| 20260902075456 | 18 | 190 | 0.0 | 0.0 | 0.00 | 0.05 | 0.00 | 87 | 1018.7 |
| 20260902075418 | 18 | 190 | 0.0 | 0.0 | 0.00 | 0.05 | 0.00 | 87 | 1018.8 |
| 20260902075240 | 18 | 190 | 0.0 | 0.0 | 0.00 | 0.05 | 0.00 | 87 | 1018.8 |
| 20260902075140 | 18 | 190 | 0.0 | 0.0 | 0.00 | 0.05 | 0.00 | 87 | 1018.8 |
| 20260902075044 | 18 | 190 | 0.0 | 0.0 | 0.00 | 0.05 | 0.00 | 87 | 1018.9 |
| 20260902075006 | 18 | 190 | 0.0 | 0.0 | 0.00 | 0.05 | 0.00 | 87 | 1018.9 |
| 20260902074815 | 18 | 190 | 0.0 | 0.0 | 0.00 | 0.05 | 0.00 | 87 | 1018.9 |
| 20260902074731 | 18 | 190 | 0.0 | 0.0 | 0.00 | 0.05 | 0.00 | 87 | 1018.9 |
| 20260902074600 | 18 | 190 | 0.0 | 0.0 | 0.00 | 0.05 | 0.00 | 86 | 1018.9 |
| 20260902074523 | 18 | 190 | 0.0 | 0.0 | 0.00 | 0.05 | 0.00 | 86 | 1018.9 |
| 20260902074331 | 18 | 190 | 0.0 | 0.0 | 0.00 | 0.05 | 0.00 | 86 | 1018.8 |
| 20260902074251 | 18 | 190 | 0.0 | 0.0 | 0.00 | 0.05 | 0.00 | 86 | 1018.8 |
| 20260902074136 | 18 | 190 | 0.0 | 0.0 | 0.00 | 0.05 | 0.00 | 86 | 1018.8 |
| 20260902074057 | 18 | 190 | 0.0 | 0.0 | 0.00 | 0.05 | 0.00 | 86 | 1018.8 |
| 20260902073958 | 18 | 190 | 0.0 | 0.0 | 0.00 | 0.05 | 0.00 | 86 | 1018.8 |
| 20260902073842 | 19 | 190 | 0.0 | 0.0 | 0.00 | 0.05 | 0.00 | 86 | 1018.8 |
| 20260902073804 | 19 | 190 | 0.0 | 0.0 | 0.00 | 0.05 | 0.00 | 86 | 1018.8 |
| 20260902073624 | 19 | 190 | 0.0 | 0.0 | 0.00 | 0.05 | 0.00 | 86 | 1018.9 |
| 20260902073526 | 19 | 190 | 0.0 | 0.0 | 0.00 | 0.05 | 0.00 | 86 | 1018.8 |
| 20260902073427 | 19 | 190 | 0.0 | 0.0 | 0.00 | 0.05 | 0.00 | 86 | 1018.8 |
| 20260902073323 | 19 | 190 | 0.0 | 0.0 | 0.00 | 0.05 | 0.00 | 85 | 1018.9 |
| 20260902073224 | 19 | 190 | 0.0 | 0.0 | 0.00 | 0.05 | 0.00 | 85 | 1018.9 |
| 20260902073126 | 19 | 190 | 0.0 | 0.0 | 0.00 | 0.05 | 0.00 | 85 | 1018.8 |
| 20260902073046 | 19 | 190 | 0.0 | 1.6 | 0.00 | 0.05 | 0.00 | 85 | 1018.8 |
| 20260902073007 | 19 | 190 | 0.0 | 3.2 | 0.00 | 0.05 | 0.00 | 84 | 1018.8 |
| 20260902072910 | 19 | 190 | 0.0 | 3.2 | 0.00 | 0.05 | 0.00 | 84 | 1018.8 |
| 20260902072832 | 19 | 190 | 0.0 | 3.2 | 0.00 | 0.05 | 0.00 | 84 | 1018.8 |
| 20260902072635 | 19 | 190 | 0.0 | 3.2 | 0.00 | 0.05 | 0.00 | 84 | 1018.9 |
| 20260902072535 | 19 | 190 | 0.0 | 4.8 | 0.00 | 0.05 | 0.00 | 84 | 1018.8 |
| 20260902072459 | 19 | 190 | 0.0 | 4.8 | 0.00 | 0.05 | 0.00 | 84 | 1018.8 |
| 20260902072421 | 19 | 190 | 0.0 | 4.8 | 0.00 | 0.05 | 0.00 | 84 | 1018.8 |
| 20260902072336 | 19 | 190 | 0.0 | 4.8 | 0.00 | 0.05 | 0.00 | 83 | 1018.8 |
| 20260902072205 | 19 | 190 | 1.6 | 4.8 | 0.00 | 0.05 | 0.00 | 83 | 1018.8 |
| 20260902072128 | 19 | 190 | 1.6 | 4.8 | 0.00 | 0.05 | 0.00 | 83 | 1018.8 |
| 20260902071930 | 19 | 190 | 0.0 | 4.8 | 0.00 | 0.05 | 0.00 | 84 | 1018.8 |
| 20260902071850 | 19 | 190 | 1.6 | 4.8 | 0.00 | 0.05 | 0.00 | 83 | 1018.9 |
| 20260902071733 | 19 | 190 | 1.6 | 4.8 | 0.00 | 0.05 | 0.00 | 83 | 1018.8 |
| 20260902071654 | 19 | 166 | 0.0 | 3.2 | 0.00 | 0.05 | 0.00 | 84 | 1018.8 |
| 20260902071528 | 19 | 166 | 0.0 | 3.2 | 0.00 | 0.05 | 0.00 | 83 | 1018.9 |
| 20260902071506 | 19 | 165 | 0.0 | 3.2 | 0.00 | 0.05 | 0.00 | 83 | 1018.8 |
| 20260902071348 | 19 | 165 | 0.0 | 3.2 | 0.00 | 0.05 | 0.00 | 83 | 1018.9 |
| 20260902071311 | 19 | 165 | 0.0 | 3.2 | 0.00 | 0.05 | 0.00 | 83 | 1018.8 |
| 20260902071130 | 19 | 165 | 1.6 | 3.2 | 0.00 | 0.05 | 0.00 | 83 | 1018.8 |
| 20260902071031 | 19 | 165 | 0.0 | 4.8 | 0.00 | 0.05 | 0.00 | 83 | 1018.8 |
| 20260902070834 | 19 | 165 | 0.0 | 3.2 | 0.00 | 0.05 | 0.00 | 83 | 1018.8 |
| 20260902070755 | 19 | 166 | 1.6 | 4.8 | 0.00 | 0.05 | 0.00 | 83 | 1018.8 |
| 20260902070700 | 19 | 166 | 1.6 | 6.4 | 0.00 | 0.05 | 0.00 | 83 | 1018.8 |
| 20260902070621 | 19 | 165 | 1.6 | 6.4 | 0.00 | 0.05 | 0.00 | 83 | 1018.9 |
| 20260902070430 | 19 | 158 | 0.0 | 6.4 | 0.00 | 0.05 | 0.00 | 83 | 1018.8 |
| 20260902070324 | 19 | 158 | 1.6 | 6.4 | 0.00 | 0.05 | 0.00 | 83 | 1018.8 |
| 20260902070139 | 19 | 158 | 1.6 | 8.0 | 0.00 | 0.05 | 0.00 | 83 | 1018.7 |
| 20260902070101 | 19 | 158 | 3.2 | 8.0 | 0.00 | 0.05 | 0.00 | 83 | 1018.7 |
| 20260902065941 | 19 | 158 | 4.8 | 8.0 | 0.00 | 0.05 | 0.00 | 84 | 1018.7 |
| 20260902065839 | 18 | 161 | 3.2 | 8.0 | 0.00 | 0.05 | 0.00 | 84 | 1018.7 |
| 20260902065707 | 18 | 164 | 0.0 | 8.0 | 0.00 | 0.05 | 0.00 | 85 | 1018.7 |
| 20260902065624 | 18 | 184 | 1.6 | 8.0 | 0.00 | 0.05 | 0.00 | 85 | 1018.7 |
| 20260902065453 | 18 | 184 | 3.2 | 8.0 | 0.00 | 0.05 | 0.00 | 85 | 1018.7 |
| 20260902065415 | 18 | 188 | 3.2 | 8.0 | 0.00 | 0.05 | 0.00 | 86 | 1018.7 |
| 20260902065240 | 18 | 219 | 3.2 | 6.4 | 0.00 | 0.05 | 0.00 | 86 | 1018.7 |
| 20260902065138 | 18 | 209 | 3.2 | 6.4 | 0.00 | 0.05 | 0.00 | 86 | 1018.7 |
| 20260902065023 | 18 | 209 | 1.6 | 6.4 | 0.00 | 0.05 | 0.00 | 87 | 1018.7 |
| 20260902064948 | 18 | 215 | 1.6 | 4.8 | 0.00 | 0.05 | 0.00 | 87 | 1018.7 |
| 20260902064810 | 18 | 169 | 0.0 | 0.0 | 0.00 | 0.05 | 0.00 | 87 | 1018.6 |
| 20260902064731 | 18 | 169 | 0.0 | 0.0 | 0.00 | 0.05 | 0.00 | 87 | 1018.6 |
| 20260902064542 | 18 | 169 | 0.0 | 0.0 | 0.00 | 0.05 | 0.00 | 88 | 1018.6 |
| 20260902064434 | 18 | 169 | 0.0 | 0.0 | 0.00 | 0.05 | 0.00 | 87 | 1018.6 |
| 20260902064355 | 18 | 169 | 0.0 | 0.0 | 0.00 | 0.05 | 0.00 | 89 | 1018.6 |
| 20260902064257 | 18 | 241 | 0.0 | 0.0 | 0.00 | 0.05 | 0.00 | 88 | 1018.6 |
| 20260902064219 | 18 | 241 | 0.0 | 0.0 | 0.00 | 0.05 | 0.00 | 89 | 1018.7 |
| 20260902064050 | 18 | 241 | 0.0 | 0.0 | 0.00 | 0.05 | 0.00 | 89 | 1018.7 |
| 20260902063945 | 18 | 241 | 0.0 | 0.0 | 0.00 | 0.05 | 0.00 | 88 | 1018.7 |
| 20260902063813 | 18 | 241 | 0.0 | 0.0 | 0.00 | 0.05 | 0.00 | 88 | 1018.7 |
| 20260902063739 | 18 | 241 | 0.0 | 0.0 | 0.00 | 0.05 | 0.00 | 88 | 1018.7 |
| 20260902063541 | 18 | 241 | 0.0 | 0.0 | 0.00 | 0.05 | 0.00 | 89 | 1018.7 |
| 20260902063502 | 18 | 241 | 0.0 | 0.0 | 0.00 | 0.05 | 0.00 | 88 | 1018.8 |
| 20260902063404 | 18 | 241 | 0.0 | 0.0 | 0.00 | 0.05 | 0.00 | 88 | 1018.8 |
| 20260902063326 | 18 | 241 | 0.0 | 0.0 | 0.00 | 0.05 | 0.00 | 88 | 1018.8 |
| 20260902063138 | 18 | 241 | 0.0 | 0.0 | 0.00 | 0.05 | 0.00 | 89 | 1018.8 |
| 20260902063031 | 18 | 241 | 0.0 | 0.0 | 0.00 | 0.05 | 0.00 | 88 | 1018.9 |
| 20260902062951 | 18 | 241 | 0.0 | 0.0 | 0.00 | 0.05 | 0.00 | 88 | 1018.8 |
| 20260902062855 | 18 | 241 | 0.0 | 0.0 | 0.00 | 0.05 | 0.00 | 88 | 1018.8 |
| 20260902062817 | 18 | 241 | 0.0 | 0.0 | 0.00 | 0.05 | 0.00 | 88 | 1018.8 |
| 20260902062623 | 18 | 241 | 0.0 | 0.0 | 0.00 | 0.05 | 0.00 | 88 | 1018.8 |
| 20260902062524 | 18 | 241 | 0.0 | 0.0 | 0.00 | 0.05 | 0.00 | 88 | 1018.8 |
| 20260902062428 | 18 | 241 | 0.0 | 0.0 | 0.00 | 0.05 | 0.00 | 88 | 1018.8 |
| 20260902062349 | 18 | 241 | 0.0 | 0.0 | 0.00 | 0.05 | 0.00 | 88 | 1018.8 |
| 20260902062218 | 18 | 241 | 0.0 | 0.0 | 0.00 | 0.05 | 0.00 | 88 | 1018.8 |
| 20260902062132 | 18 | 241 | 0.0 | 0.0 | 0.00 | 0.05 | 0.00 | 88 | 1018.8 |
| 20260902061942 | 18 | 241 | 0.0 | 0.0 | 0.00 | 0.05 | 0.00 | 88 | 1018.8 |
| 20260902061856 | 18 | 241 | 0.0 | 0.0 | 0.00 | 0.05 | 0.00 | 88 | 1018.8 |
| 20260902061704 | 18 | 241 | 0.0 | 0.0 | 0.00 | 0.05 | 0.00 | 88 | 1018.8 |
| 20260902061626 | 18 | 241 | 0.0 | 0.0 | 0.00 | 0.05 | 0.00 | 88 | 1018.8 |
| 20260902061459 | 18 | 241 | 0.0 | 0.0 | 0.00 | 0.05 | 0.00 | 88 | 1018.7 |
| 20260902061413 | 18 | 241 | 0.0 | 0.0 | 0.00 | 0.05 | 0.00 | 88 | 1018.8 |
| 20260902061131 | 18 | 241 | 0.0 | 0.0 | 0.00 | 0.05 | 0.00 | 88 | 1018.7 |
| 20260902061025 | 18 | 241 | 0.0 | 0.0 | 0.00 | 0.05 | 0.00 | 87 | 1018.7 |
| 20260902060947 | 18 | 241 | 0.0 | 0.0 | 0.00 | 0.05 | 0.00 | 87 | 1018.7 |
| 20260902060849 | 18 | 241 | 0.0 | 0.0 | 0.00 | 0.05 | 0.00 | 87 | 1018.6 |
| 20260902060729 | 18 | 241 | 0.0 | 0.0 | 0.00 | 0.05 | 0.00 | 87 | 1018.6 |
| 20260902060632 | 18 | 241 | 0.0 | 0.0 | 0.00 | 0.05 | 0.00 | 88 | 1018.6 |
| 20260902060532 | 18 | 241 | 0.0 | 0.0 | 0.00 | 0.05 | 0.00 | 87 | 1018.6 |
| 20260902060403 | 18 | 241 | 0.0 | 0.0 | 0.00 | 0.05 | 0.00 | 87 | 1018.6 |
| 20260902060322 | 18 | 241 | 0.0 | 0.0 | 0.00 | 0.05 | 0.00 | 87 | 1018.6 |
| 20260902060132 | 18 | 241 | 0.0 | 0.0 | 0.00 | 0.05 | 0.00 | 88 | 1018.5 |
| 20260902060047 | 18 | 241 | 0.0 | 0.0 | 0.00 | 0.05 | 0.00 | 88 | 1018.6 |
| 20260902055856 | 18 | 241 | 0.0 | 0.0 | 0.00 | 0.05 | 0.00 | 88 | 1018.5 |
| 20260902055819 | 18 | 241 | 0.0 | 0.0 | 0.00 | 0.05 | 0.00 | 88 | 1018.5 |
| 20260902055649 | 18 | 241 | 0.0 | 0.0 | 0.00 | 0.05 | 0.00 | 88 | 1018.5 |
| 20260902055543 | 18 | 241 | 0.0 | 0.0 | 0.00 | 0.05 | 0.00 | 88 | 1018.5 |
| 20260902055437 | 18 | 241 | 0.0 | 0.0 | 0.00 | 0.05 | 0.00 | 87 | 1018.5 |
| 20260902055359 | 18 | 241 | 0.0 | 0.0 | 0.00 | 0.05 | 0.00 | 87 | 1018.6 |
| 20260902055226 | 18 | 241 | 0.0 | 0.0 | 0.00 | 0.05 | 0.00 | 87 | 1018.5 |
| 20260902055148 | 18 | 241 | 0.0 | 0.0 | 0.00 | 0.05 | 0.00 | 88 | 1018.5 |
| 20260902055018 | 18 | 241 | 0.0 | 0.0 | 0.00 | 0.05 | 0.00 | 88 | 1018.6 |
| 20260902054932 | 18 | 241 | 0.0 | 0.0 | 0.00 | 0.05 | 0.00 | 87 | 1018.6 |
| 20260902054741 | 18 | 241 | 0.0 | 0.0 | 0.00 | 0.05 | 0.00 | 86 | 1018.6 |
| 20260902054706 | 18 | 241 | 0.0 | 0.0 | 0.00 | 0.05 | 0.00 | 86 | 1018.6 |
| 20260902054514 | 18 | 241 | 0.0 | 0.0 | 0.00 | 0.05 | 0.00 | 86 | 1018.6 |
| 20260902054416 | 18 | 241 | 0.0 | 0.0 | 0.00 | 0.05 | 0.00 | 86 | 1018.6 |
| 20260902054238 | 18 | 241 | 0.0 | 0.0 | 0.00 | 0.05 | 0.00 | 86 | 1018.6 |
| 20260902054140 | 18 | 241 | 0.0 | 0.0 | 0.00 | 0.05 | 0.00 | 86 | 1018.6 |
| 20260902054028 | 18 | 241 | 0.0 | 0.0 | 0.00 | 0.05 | 0.00 | 86 | 1018.6 |
| 20260902053949 | 18 | 241 | 0.0 | 0.0 | 0.00 | 0.05 | 0.00 | 86 | 1018.6 |
| 20260902053820 | 18 | 241 | 0.0 | 0.0 | 0.00 | 0.05 | 0.00 | 86 | 1018.5 |
| 20260902053734 | 18 | 241 | 0.0 | 0.0 | 0.00 | 0.05 | 0.00 | 86 | 1018.5 |
| 20260902053544 | 18 | 241 | 0.0 | 0.0 | 0.00 | 0.05 | 0.00 | 85 | 1018.6 |
| 20260902053441 | 18 | 241 | 0.0 | 0.0 | 0.00 | 0.05 | 0.00 | 85 | 1018.6 |
| 20260902053323 | 18 | 241 | 0.0 | 0.0 | 0.00 | 0.05 | 0.00 | 86 | 1018.6 |
| 20260902053245 | 18 | 241 | 0.0 | 0.0 | 0.00 | 0.05 | 0.00 | 86 | 1018.6 |
| 20260902053115 | 18 | 241 | 0.0 | 0.0 | 0.00 | 0.05 | 0.00 | 84 | 1018.6 |
| 20260902053031 | 18 | 241 | 0.0 | 0.0 | 0.00 | 0.05 | 0.00 | 85 | 1018.6 |
| 20260902052904 | 19 | 241 | 0.0 | 0.0 | 0.00 | 0.05 | 0.00 | 85 | 1018.5 |
| 20260902052826 | 18 | 241 | 0.0 | 0.0 | 0.00 | 0.05 | 0.00 | 85 | 1018.5 |
| 20260902052629 | 18 | 241 | 0.0 | 0.0 | 0.00 | 0.05 | 0.00 | 85 | 1018.5 |
| 20260902052551 | 18 | 241 | 0.0 | 0.0 | 0.00 | 0.05 | 0.00 | 85 | 1018.5 |
| 20260902052433 | 18 | 241 | 0.0 | 0.0 | 0.00 | 0.05 | 0.00 | 85 | 1018.6 |
| 20260902052354 | 19 | 241 | 0.0 | 0.0 | 0.00 | 0.05 | 0.00 | 85 | 1018.5 |
| 20260902052315 | 18 | 241 | 0.0 | 0.0 | 0.00 | 0.05 | 0.00 | 85 | 1018.5 |
| 20260902052217 | 18 | 241 | 0.0 | 0.0 | 0.00 | 0.05 | 0.00 | 84 | 1018.5 |
| 20260902052139 | 18 | 241 | 0.0 | 0.0 | 0.00 | 0.05 | 0.00 | 84 | 1018.5 |
| 20260902051947 | 18 | 241 | 0.0 | 0.0 | 0.00 | 0.05 | 0.00 | 85 | 1018.5 |
| 20260902051827 | 18 | 241 | 0.0 | 0.0 | 0.00 | 0.05 | 0.00 | 84 | 1018.5 |
| 20260902051729 | 18 | 241 | 0.0 | 0.0 | 0.00 | 0.05 | 0.00 | 84 | 1018.5 |
| 20260902051650 | 18 | 250 | 0.0 | 0.0 | 0.00 | 0.05 | 0.00 | 84 | 1018.5 |
| 20260902051610 | 18 | 202 | 0.0 | 0.0 | 0.00 | 0.05 | 0.00 | 85 | 1018.5 |
| 20260902051512 | 18 | 202 | 0.0 | 0.0 | 0.00 | 0.05 | 0.00 | 86 | 1018.5 |
| 20260902051434 | 18 | 202 | 0.0 | 0.0 | 0.00 | 0.05 | 0.00 | 85 | 1018.5 |
| 20260902051303 | 18 | 202 | 0.0 | 0.0 | 0.00 | 0.05 | 0.00 | 85 | 1018.4 |
| 20260902051218 | 18 | 202 | 0.0 | 0.0 | 0.00 | 0.05 | 0.00 | 85 | 1018.5 |
| 20260902050955 | 18 | 202 | 0.0 | 0.0 | 0.00 | 0.05 | 0.00 | 84 | 1018.5 |
| 20260902050855 | 18 | 202 | 0.0 | 0.0 | 0.00 | 0.05 | 0.00 | 84 | 1018.5 |
| 20260902050758 | 18 | 202 | 0.0 | 0.0 | 0.00 | 0.05 | 0.00 | 84 | 1018.5 |
| 20260902050720 | 18 | 202 | 0.0 | 0.0 | 0.00 | 0.05 | 0.00 | 84 | 1018.5 |
| 20260902050533 | 19 | 202 | 0.0 | 0.0 | 0.00 | 0.05 | 0.00 | 84 | 1018.5 |
| 20260902050429 | 19 | 202 | 0.0 | 0.0 | 0.00 | 0.05 | 0.00 | 84 | 1018.5 |
| 20260902050349 | 19 | 202 | 0.0 | 0.0 | 0.00 | 0.05 | 0.00 | 84 | 1018.5 |
| 20260902050231 | 19 | 202 | 0.0 | 1.6 | 0.00 | 0.05 | 0.00 | 84 | 1018.5 |
| 20260902050153 | 19 | 202 | 0.0 | 1.6 | 0.00 | 0.05 | 0.00 | 84 | 1018.5 |
| 20260902045934 | 19 | 202 | 0.0 | 1.6 | 0.00 | 0.05 | 0.00 | 83 | 1018.5 |
| 20260902045854 | 19 | 202 | 0.0 | 1.6 | 0.00 | 0.05 | 0.00 | 84 | 1018.5 |
| 20260902045758 | 19 | 202 | 0.0 | 1.6 | 0.00 | 0.05 | 0.00 | 83 | 1018.5 |
| 20260902045720 | 19 | 202 | 0.0 | 1.6 | 0.00 | 0.05 | 0.00 | 83 | 1018.5 |
| 20260902045554 | 19 | 202 | 0.0 | 1.6 | 0.00 | 0.05 | 0.00 | 84 | 1018.5 |
| 20260902045427 | 19 | 182 | 0.0 | 1.6 | 0.00 | 0.05 | 0.00 | 83 | 1018.5 |
| 20260902045256 | 19 | 182 | 0.0 | 1.6 | 0.00 | 0.05 | 0.00 | 83 | 1018.5 |
| 20260902045217 | 19 | 156 | 0.0 | 1.6 | 0.00 | 0.05 | 0.00 | 84 | 1018.4 |
| 20260902045048 | 19 | 170 | 0.0 | 0.0 | 0.00 | 0.05 | 0.00 | 83 | 1018.3 |
| 20260902045002 | 19 | 170 | 0.0 | 0.0 | 0.00 | 0.05 | 0.00 | 83 | 1018.3 |
| 20260902044833 | 19 | 170 | 0.0 | 0.0 | 0.00 | 0.05 | 0.00 | 83 | 1018.3 |
| 20260902044734 | 19 | 170 | 0.0 | 0.0 | 0.00 | 0.05 | 0.00 | 83 | 1018.3 |
| 20260902044537 | 19 | 170 | 0.0 | 1.6 | 0.00 | 0.05 | 0.00 | 82 | 1018.3 |
| 20260902044456 | 19 | 170 | 0.0 | 1.6 | 0.00 | 0.05 | 0.00 | 82 | 1018.2 |
| 20260902044359 | 19 | 170 | 0.0 | 1.6 | 0.00 | 0.05 | 0.00 | 83 | 1018.3 |
| 20260902044321 | 19 | 170 | 0.0 | 1.6 | 0.00 | 0.05 | 0.00 | 83 | 1018.3 |
| 20260902044154 | 19 | 170 | 0.0 | 3.2 | 0.00 | 0.05 | 0.00 | 82 | 1018.3 |
| 20260902044108 | 19 | 170 | 0.0 | 3.2 | 0.00 | 0.05 | 0.00 | 82 | 1018.3 |
| 20260902043937 | 19 | 170 | 0.0 | 3.2 | 0.00 | 0.05 | 0.00 | 82 | 1018.3 |
| 20260902043838 | 19 | 170 | 0.0 | 3.2 | 0.00 | 0.05 | 0.00 | 82 | 1018.3 |
| 20260902043641 | 19 | 170 | 0.0 | 3.2 | 0.00 | 0.05 | 0.00 | 82 | 1018.3 |
| 20260902043601 | 19 | 170 | 0.0 | 3.2 | 0.00 | 0.05 | 0.00 | 81 | 1018.3 |
| 20260902043443 | 19 | 170 | 0.0 | 4.8 | 0.00 | 0.05 | 0.00 | 81 | 1018.3 |
| 20260902043406 | 19 | 214 | 0.0 | 4.8 | 0.00 | 0.05 | 0.00 | 81 | 1018.3 |
| 20260902043214 | 19 | 214 | 0.0 | 4.8 | 0.00 | 0.05 | 0.00 | 81 | 1018.3 |
| 20260902043129 | 19 | 214 | 1.6 | 6.4 | 0.00 | 0.05 | 0.00 | 81 | 1018.3 |
| 20260902042958 | 19 | 214 | 1.6 | 6.4 | 0.00 | 0.05 | 0.00 | 81 | 1018.4 |
| 20260902042925 | 20 | 214 | 1.6 | 6.4 | 0.00 | 0.05 | 0.00 | 81 | 1018.4 |
| 20260902042728 | 20 | 214 | 1.6 | 6.4 | 0.00 | 0.05 | 0.00 | 81 | 1018.4 |
| 20260902042648 | 20 | 214 | 1.6 | 6.4 | 0.00 | 0.05 | 0.00 | 80 | 1018.4 |
| 20260902042551 | 20 | 225 | 1.6 | 6.4 | 0.00 | 0.05 | 0.00 | 80 | 1018.3 |
| 20260902042432 | 20 | 222 | 1.6 | 6.4 | 0.00 | 0.05 | 0.00 | 80 | 1018.4 |
| 20260902042334 | 20 | 222 | 3.2 | 6.4 | 0.00 | 0.05 | 0.00 | 80 | 1018.3 |
| 20260902042255 | 20 | 222 | 3.2 | 6.4 | 0.00 | 0.05 | 0.00 | 80 | 1018.3 |
| 20260902042215 | 20 | 216 | 3.2 | 9.7 | 0.00 | 0.05 | 0.00 | 80 | 1018.3 |
| 20260902042119 | 20 | 216 | 3.2 | 9.7 | 0.00 | 0.05 | 0.00 | 81 | 1018.3 |
| 20260902042041 | 20 | 209 | 3.2 | 9.7 | 0.00 | 0.05 | 0.00 | 80 | 1018.3 |
| 20260902041833 | 20 | 201 | 1.6 | 9.7 | 0.00 | 0.05 | 0.00 | 80 | 1018.2 |
| 20260902041727 | 20 | 182 | 1.6 | 9.7 | 0.00 | 0.05 | 0.00 | 80 | 1018.2 |
| 20260902041622 | 20 | 166 | 3.2 | 9.7 | 0.00 | 0.05 | 0.00 | 80 | 1018.2 |
| 20260902041554 | 20 | 194 | 3.2 | 9.7 | 0.00 | 0.05 | 0.00 | 80 | 1018.2 |
| 20260902041516 | 20 | 207 | 4.8 | 9.7 | 0.00 | 0.05 | 0.00 | 79 | 1018.1 |
| 20260902041418 | 20 | 190 | 4.8 | 9.7 | 0.00 | 0.05 | 0.00 | 80 | 1018.2 |
| 20260902041319 | 20 | 192 | 4.8 | 9.7 | 0.00 | 0.05 | 0.00 | 80 | 1018.2 |
| 20260902041158 | 20 | 187 | 4.8 | 9.7 | 0.00 | 0.05 | 0.00 | 80 | 1018.2 |
| 20260902041114 | 20 | 195 | 4.8 | 9.7 | 0.00 | 0.05 | 0.00 | 79 | 1018.1 |
| 20260902040923 | 20 | 167 | 3.2 | 6.4 | 0.00 | 0.05 | 0.00 | 80 | 1018.1 |
| 20260902040841 | 20 | 167 | 1.6 | 4.8 | 0.00 | 0.05 | 0.00 | 80 | 1018.1 |
| 20260902040618 | 20 | 167 | 3.2 | 4.8 | 0.00 | 0.05 | 0.00 | 80 | 1018.1 |
| 20260902040541 | 20 | 167 | 3.2 | 6.4 | 0.00 | 0.05 | 0.00 | 79 | 1018.1 |
| 20260902040341 | 20 | 163 | 0.0 | 3.2 | 0.00 | 0.05 | 0.00 | 80 | 1018.1 |
| 20260902040242 | 20 | 163 | 1.6 | 3.2 | 0.00 | 0.05 | 0.00 | 80 | 1018.1 |
| 20260902040125 | 20 | 163 | 1.6 | 3.2 | 0.00 | 0.05 | 0.00 | 79 | 1018.2 |
| 20260902040047 | 20 | 163 | 0.0 | 3.2 | 0.00 | 0.05 | 0.00 | 80 | 1018.2 |
| 20260902040008 | 20 | 167 | 0.0 | 8.0 | 0.00 | 0.05 | 0.00 | 79 | 1018.2 |
| 20260902035913 | 20 | 167 | 0.0 | 8.0 | 0.00 | 0.05 | 0.05 | 79 | 1018.2 |
| 20260902035834 | 20 | 167 | 0.0 | 8.0 | 0.00 | 0.05 | 0.05 | 79 | 1018.2 |
| 20260902035704 | 20 | 167 | 0.0 | 8.0 | 0.00 | 0.05 | 0.05 | 79 | 1018.2 |
| 20260902035623 | 20 | 167 | 1.6 | 8.0 | 0.00 | 0.05 | 0.05 | 79 | 1018.2 |
| 20260902035454 | 20 | 167 | 1.6 | 8.0 | 0.00 | 0.05 | 0.05 | 79 | 1018.1 |
| 20260902035415 | 20 | 164 | 1.6 | 8.0 | 0.00 | 0.05 | 0.05 | 79 | 1018.1 |
| 20260902035239 | 20 | 164 | 3.2 | 8.0 | 0.00 | 0.05 | 0.05 | 79 | 1018.1 |
| 20260902035200 | 20 | 148 | 3.2 | 8.0 | 0.00 | 0.05 | 0.05 | 79 | 1018.1 |
| 20260902034908 | 20 | 160 | 0.0 | 4.8 | 0.00 | 0.05 | 0.05 | 80 | 1018.1 |
| 20260902034726 | 20 | 160 | 0.0 | 8.0 | 0.00 | 0.05 | 0.05 | 78 | 1018.1 |
| 20260902034631 | 20 | 160 | 1.6 | 8.0 | 0.00 | 0.05 | 0.05 | 78 | 1018.1 |
| 20260902034553 | 20 | 160 | 1.6 | 8.0 | 0.00 | 0.05 | 0.05 | 78 | 1018.1 |
| 20260902034422 | 20 | 162 | 1.6 | 8.0 | 0.00 | 0.05 | 0.05 | 78 | 1018.0 |
| 20260902034337 | 20 | 180 | 3.2 | 8.0 | 0.00 | 0.05 | 0.05 | 78 | 1018.0 |
| 20260902034206 | 20 | 175 | 3.2 | 8.0 | 0.00 | 0.05 | 0.05 | 78 | 1018.1 |
| 20260902034107 | 20 | 171 | 4.8 | 8.0 | 0.00 | 0.05 | 0.05 | 78 | 1018.0 |
| 20260902034012 | 20 | 203 | 4.8 | 8.0 | 0.00 | 0.05 | 0.05 | 78 | 1018.0 |
| 20260902033933 | 20 | 193 | 4.8 | 8.0 | 0.00 | 0.05 | 0.05 | 78 | 1018.0 |
| 20260902033804 | 20 | 220 | 4.8 | 8.0 | 0.00 | 0.05 | 0.05 | 78 | 1018.0 |
| 20260902033704 | 20 | 217 | 3.2 | 6.4 | 0.00 | 0.05 | 0.05 | 78 | 1018.0 |
| 20260902033528 | 20 | 190 | 1.6 | 6.4 | 0.00 | 0.05 | 0.05 | 78 | 1018.0 |
| 20260902033455 | 20 | 186 | 1.6 | 6.4 | 0.00 | 0.05 | 0.05 | 78 | 1018.0 |
| 20260902033238 | 20 | 183 | 1.6 | 6.4 | 0.00 | 0.05 | 0.05 | 78 | 1017.8 |
| 20260902033159 | 20 | 183 | 1.6 | 6.4 | 0.00 | 0.05 | 0.05 | 78 | 1017.9 |
| 20260902033023 | 20 | 157 | 0.0 | 3.2 | 0.00 | 0.05 | 0.05 | 78 | 1017.8 |
| 20260902032938 | 20 | 157 | 0.0 | 3.2 | 0.00 | 0.05 | 0.05 | 78 | 1017.8 |
| 20260902032809 | 20 | 157 | 0.0 | 3.2 | 0.00 | 0.05 | 0.05 | 78 | 1017.9 |
| 20260902032731 | 20 | 157 | 0.0 | 3.2 | 0.00 | 0.05 | 0.05 | 79 | 1017.9 |
| 20260902032554 | 20 | 157 | 0.0 | 6.4 | 0.00 | 0.05 | 0.05 | 78 | 1017.9 |
| 20260902032517 | 20 | 157 | 0.0 | 6.4 | 0.00 | 0.05 | 0.05 | 78 | 1017.9 |
| 20260902032330 | 20 | 157 | 1.6 | 6.4 | 0.00 | 0.05 | 0.05 | 78 | 1017.9 |
| 20260902032245 | 20 | 157 | 1.6 | 6.4 | 0.00 | 0.05 | 0.05 | 78 | 1017.9 |
| 20260902032115 | 20 | 156 | 1.6 | 6.4 | 0.00 | 0.05 | 0.05 | 78 | 1017.9 |
| 20260902032037 | 20 | 156 | 1.6 | 6.4 | 0.00 | 0.05 | 0.05 | 78 | 1017.9 |
| 20260902031843 | 20 | 174 | 3.2 | 6.4 | 0.00 | 0.05 | 0.05 | 78 | 1017.9 |
| 20260902031804 | 20 | 177 | 3.2 | 6.4 | 0.00 | 0.05 | 0.05 | 78 | 1017.9 |
| 20260902031707 | 19 | 211 | 3.2 | 6.4 | 0.00 | 0.05 | 0.05 | 78 | 1017.9 |
| 20260902031630 | 19 | 213 | 3.2 | 6.4 | 0.00 | 0.05 | 0.05 | 79 | 1017.9 |
| 20260902031435 | 20 | 202 | 1.6 | 4.8 | 0.00 | 0.05 | 0.05 | 79 | 1017.9 |
| 20260902031322 | 20 | 194 | 1.6 | 4.8 | 0.00 | 0.05 | 0.05 | 80 | 1017.9 |
| 20260902031245 | 20 | 241 | 3.2 | 4.8 | 0.00 | 0.05 | 0.05 | 80 | 1017.9 |
| 20260902031146 | 20 | 192 | 1.6 | 4.8 | 0.00 | 0.05 | 0.05 | 80 | 1017.8 |
| 20260902031014 | 20 | 192 | 0.0 | 1.6 | 0.00 | 0.05 | 0.05 | 81 | 1017.7 |
| 20260902030929 | 20 | 192 | 0.0 | 1.6 | 0.00 | 0.05 | 0.05 | 81 | 1017.7 |
| 20260902030738 | 20 | 192 | 0.0 | 1.6 | 0.00 | 0.05 | 0.05 | 80 | 1017.7 |
| 20260902030633 | 20 | 192 | 0.0 | 1.6 | 0.00 | 0.05 | 0.05 | 80 | 1017.6 |
| 20260902030529 | 20 | 192 | 0.0 | 3.2 | 0.00 | 0.05 | 0.05 | 80 | 1017.6 |
| 20260902030450 | 20 | 192 | 0.0 | 3.2 | 0.00 | 0.05 | 0.05 | 79 | 1017.6 |
| 20260902030259 | 20 | 192 | 0.0 | 4.8 | 0.00 | 0.05 | 0.05 | 78 | 1017.5 |
| 20260902030216 | 20 | 192 | 0.0 | 4.8 | 0.00 | 0.05 | 0.05 | 80 | 1017.5 |
| 20260902025955 | 20 | 192 | 0.0 | 4.8 | 0.00 | 0.05 | 0.05 | 80 | 1017.5 |
| 20260902025918 | 20 | 192 | 0.0 | 4.8 | 0.00 | 0.05 | 0.05 | 79 | 1017.5 |
| 20260902025741 | 20 | 192 | 1.6 | 4.8 | 0.00 | 0.05 | 0.05 | 78 | 1017.4 |
| 20260902025641 | 20 | 192 | 1.6 | 4.8 | 0.00 | 0.05 | 0.05 | 78 | 1017.4 |
| 20260902025525 | 20 | 192 | 1.6 | 8.0 | 0.00 | 0.05 | 0.05 | 78 | 1017.4 |
| 20260902025448 | 20 | 192 | 0.0 | 8.0 | 0.00 | 0.05 | 0.05 | 78 | 1017.4 |
| 20260902025318 | 20 | 192 | 0.0 | 8.0 | 0.00 | 0.05 | 0.05 | 77 | 1017.3 |
| 20260902025231 | 20 | 192 | 0.0 | 8.0 | 0.00 | 0.05 | 0.05 | 77 | 1017.3 |
| 20260902025042 | 20 | 192 | 0.0 | 8.0 | 0.00 | 0.05 | 0.05 | 77 | 1017.3 |
| 20260902025000 | 20 | 192 | 1.6 | 8.0 | 0.00 | 0.05 | 0.05 | 77 | 1017.3 |
| 20260902024832 | 20 | 198 | 1.6 | 8.0 | 0.00 | 0.05 | 0.05 | 77 | 1017.3 |
| 20260902024732 | 20 | 207 | 1.6 | 8.0 | 0.00 | 0.05 | 0.05 | 77 | 1017.3 |
| 20260902024535 | 20 | 186 | 1.6 | 6.4 | 0.00 | 0.05 | 0.05 | 77 | 1017.2 |
| 20260902024458 | 20 | 171 | 1.6 | 6.4 | 0.00 | 0.05 | 0.05 | 77 | 1017.2 |
| 20260902024342 | 20 | 171 | 3.2 | 6.4 | 0.00 | 0.05 | 0.05 | 78 | 1017.1 |
| 20260902024305 | 20 | 206 | 3.2 | 6.4 | 0.00 | 0.05 | 0.05 | 78 | 1017.1 |
| 20260902024107 | 20 | 192 | 1.6 | 6.4 | 0.00 | 0.05 | 0.05 | 78 | 1017.2 |
| 20260902024029 | 20 | 192 | 3.2 | 6.4 | 0.00 | 0.05 | 0.05 | 78 | 1017.2 |
| 20260902023840 | 20 | 207 | 4.8 | 6.4 | 0.00 | 0.05 | 0.05 | 78 | 1017.2 |
| 20260902023757 | 20 | 176 | 4.8 | 6.4 | 0.00 | 0.05 | 0.05 | 78 | 1017.2 |
| 20260902023605 | 20 | 182 | 1.6 | 6.4 | 0.00 | 0.05 | 0.05 | 78 | 1017.1 |
| 20260902023527 | 20 | 194 | 0.0 | 4.8 | 0.00 | 0.05 | 0.05 | 78 | 1017.1 |
| 20260902023331 | 20 | 175 | 0.0 | 4.8 | 0.00 | 0.05 | 0.05 | 79 | 1017.2 |
| 20260902023252 | 20 | 175 | 0.0 | 4.8 | 0.00 | 0.05 | 0.05 | 78 | 1017.1 |
| 20260902023156 | 20 | 175 | 0.0 | 6.4 | 0.00 | 0.05 | 0.05 | 78 | 1017.2 |
| 20260902023118 | 20 | 175 | 1.6 | 6.4 | 0.00 | 0.05 | 0.05 | 79 | 1017.2 |
| 20260902022926 | 20 | 175 | 0.0 | 6.4 | 0.00 | 0.05 | 0.05 | 78 | 1017.2 |
| 20260902022821 | 20 | 184 | 0.0 | 6.4 | 0.00 | 0.05 | 0.05 | 78 | 1017.3 |
| 20260902022630 | 20 | 184 | 0.0 | 8.0 | 0.00 | 0.05 | 0.05 | 78 | 1017.2 |
| 20260902022545 | 20 | 184 | 1.6 | 8.0 | 0.00 | 0.05 | 0.05 | 78 | 1017.3 |
| 20260902022419 | 20 | 221 | 3.2 | 8.0 | 0.00 | 0.05 | 0.05 | 78 | 1017.3 |
| 20260902022340 | 20 | 200 | 3.2 | 8.0 | 0.00 | 0.05 | 0.05 | 78 | 1017.3 |
| 20260902022209 | 20 | 164 | 4.8 | 8.0 | 0.00 | 0.05 | 0.05 | 77 | 1017.4 |
| 20260902022124 | 20 | 173 | 3.2 | 8.0 | 0.00 | 0.05 | 0.05 | 77 | 1017.4 |
| 20260902021935 | 20 | 169 | 4.8 | 8.0 | 0.00 | 0.05 | 0.05 | 78 | 1017.4 |
| 20260902021850 | 20 | 171 | 4.8 | 9.7 | 0.00 | 0.05 | 0.05 | 78 | 1017.4 |
| 20260902021659 | 20 | 186 | 3.2 | 4.8 | 0.00 | 0.05 | 0.05 | 79 | 1017.4 |
| 20260902021559 | 20 | 180 | 3.2 | 6.4 | 0.00 | 0.05 | 0.05 | 78 | 1017.4 |
| 20260902021424 | 20 | 188 | 1.6 | 6.4 | 0.00 | 0.05 | 0.05 | 79 | 1017.4 |
| 20260902021340 | 20 | 188 | 3.2 | 6.4 | 0.00 | 0.05 | 0.05 | 79 | 1017.4 |
| 20260902021214 | 20 | 176 | 1.6 | 8.0 | 0.00 | 0.05 | 0.05 | 79 | 1017.4 |
| 20260902021135 | 20 | 176 | 1.6 | 8.0 | 0.00 | 0.05 | 0.05 | 79 | 1017.4 |
| 20260902021005 | 20 | 176 | 1.6 | 8.0 | 0.00 | 0.05 | 0.05 | 79 | 1017.5 |
| 20260902020920 | 20 | 176 | 3.2 | 8.0 | 0.00 | 0.05 | 0.05 | 79 | 1017.5 |
| 20260902020740 | 20 | 174 | 3.2 | 8.0 | 0.00 | 0.05 | 0.05 | 79 | 1017.5 |
| 20260902020655 | 20 | 176 | 3.2 | 8.0 | 0.00 | 0.05 | 0.05 | 79 | 1017.5 |
| 20260902020526 | 20 | 175 | 4.8 | 8.0 | 0.00 | 0.05 | 0.05 | 79 | 1017.5 |
| 20260902020425 | 20 | 173 | 4.8 | 6.4 | 0.00 | 0.05 | 0.05 | 79 | 1017.5 |
| 20260902020225 | 20 | 183 | 3.2 | 8.0 | 0.00 | 0.05 | 0.05 | 79 | 1017.5 |
| 20260902020147 | 20 | 175 | 4.8 | 8.0 | 0.00 | 0.05 | 0.05 | 79 | 1017.5 |
| 20260902020034 | 20 | 183 | 3.2 | 8.0 | 0.00 | 0.05 | 0.05 | 79 | 1017.6 |
| 20260902015955 | 20 | 169 | 1.6 | 8.0 | 0.00 | 0.05 | 0.05 | 79 | 1017.5 |
| 20260902015917 | 20 | 211 | 1.6 | 8.0 | 0.00 | 0.05 | 0.05 | 79 | 1017.5 |
| 20260902015818 | 20 | 165 | 3.2 | 8.0 | 0.00 | 0.05 | 0.05 | 80 | 1017.6 |
| 20260902015739 | 20 | 165 | 3.2 | 8.0 | 0.00 | 0.05 | 0.05 | 80 | 1017.6 |
| 20260902015608 | 20 | 214 | 3.2 | 8.0 | 0.00 | 0.05 | 0.05 | 80 | 1017.6 |
| 20260902015441 | 20 | 208 | 1.6 | 6.4 | 0.00 | 0.05 | 0.05 | 80 | 1017.6 |
| 20260902015325 | 20 | 155 | 1.6 | 4.8 | 0.00 | 0.05 | 0.05 | 80 | 1017.6 |
| 20260902015246 | 20 | 176 | 1.6 | 4.8 | 0.00 | 0.05 | 0.05 | 80 | 1017.6 |
| 20260902015207 | 20 | 194 | 1.6 | 4.8 | 0.00 | 0.05 | 0.05 | 80 | 1017.6 |
| 20260902015111 | 20 | 194 | 0.0 | 4.8 | 0.00 | 0.05 | 0.05 | 80 | 1017.5 |
| 20260902015037 | 20 | 194 | 1.6 | 4.8 | 0.00 | 0.05 | 0.05 | 80 | 1017.5 |
| 20260902014908 | 20 | 194 | 1.6 | 4.8 | 0.00 | 0.05 | 0.05 | 79 | 1017.5 |
| 20260902014823 | 20 | 194 | 3.2 | 4.8 | 0.00 | 0.05 | 0.05 | 79 | 1017.5 |
| 20260902014654 | 20 | 192 | 3.2 | 6.4 | 0.00 | 0.05 | 0.05 | 79 | 1017.5 |
| 20260902014615 | 20 | 219 | 1.6 | 6.4 | 0.00 | 0.05 | 0.05 | 80 | 1017.5 |
| 20260902014446 | 20 | 215 | 0.0 | 6.4 | 0.00 | 0.05 | 0.05 | 81 | 1017.5 |
| 20260902014401 | 20 | 254 | 1.6 | 6.4 | 0.00 | 0.05 | 0.05 | 80 | 1017.5 |
| 20260902014220 | 21 | 234 | 1.6 | 6.4 | 0.00 | 0.05 | 0.05 | 79 | 1017.5 |
| 20260902014121 | 21 | 234 | 1.6 | 6.4 | 0.00 | 0.05 | 0.05 | 79 | 1017.4 |
| 20260902013925 | 21 | 157 | 3.2 | 6.4 | 0.00 | 0.05 | 0.05 | 76 | 1017.5 |
| 20260902013847 | 20 | 185 | 4.8 | 6.4 | 0.00 | 0.05 | 0.05 | 76 | 1017.5 |
| 20260902013751 | 20 | 148 | 4.8 | 9.7 | 0.00 | 0.05 | 0.05 | 77 | 1017.4 |
| 20260902013716 | 20 | 184 | 4.8 | 9.7 | 0.00 | 0.05 | 0.05 | 78 | 1017.4 |
| 20260902013546 | 21 | 159 | 3.2 | 9.7 | 0.00 | 0.05 | 0.05 | 78 | 1017.4 |
| 20260902013441 | 21 | 188 | 3.2 | 9.7 | 0.00 | 0.05 | 0.05 | 77 | 1017.4 |
| 20260902013325 | 21 | 159 | 1.6 | 9.7 | 0.00 | 0.05 | 0.05 | 79 | 1017.4 |
| 20260902013225 | 21 | 135 | 1.6 | 9.7 | 0.00 | 0.05 | 0.05 | 78 | 1017.4 |
| 20260902013147 | 21 | 135 | 3.2 | 9.7 | 0.00 | 0.05 | 0.05 | 77 | 1017.4 |
| 20260902013050 | 21 | 135 | 3.2 | 9.7 | 0.00 | 0.05 | 0.05 | 77 | 1017.4 |
| 20260902013012 | 21 | 176 | 3.2 | 11.3 | 0.00 | 0.05 | 0.05 | 78 | 1017.4 |
| 20260902012822 | 21 | 139 | 1.6 | 12.9 | 0.00 | 0.05 | 0.05 | 78 | 1017.4 |
| 20260902012716 | 21 | 182 | 1.6 | 12.9 | 0.00 | 0.05 | 0.05 | 78 | 1017.4 |
| 20260902012550 | 21 | 196 | 3.2 | 12.9 | 0.00 | 0.05 | 0.05 | 78 | 1017.4 |
| 20260902012511 | 21 | 188 | 3.2 | 12.9 | 0.00 | 0.05 | 0.05 | 77 | 1017.4 |
| 20260902012414 | 21 | 215 | 3.2 | 16.1 | 0.00 | 0.05 | 0.05 | 77 | 1017.4 |
| 20260902012316 | 21 | 186 | 1.6 | 16.1 | 0.00 | 0.05 | 0.05 | 77 | 1017.4 |
| 20260902012238 | 21 | 179 | 4.8 | 16.1 | 0.00 | 0.05 | 0.05 | 77 | 1017.4 |
| 20260902012109 | 21 | 162 | 8.0 | 16.1 | 0.00 | 0.05 | 0.05 | 77 | 1017.3 |
| 20260902012025 | 21 | 166 | 6.4 | 16.1 | 0.00 | 0.05 | 0.05 | 77 | 1017.3 |
| 20260902011835 | 21 | 118 | 6.4 | 16.1 | 0.00 | 0.05 | 0.05 | 77 | 1017.3 |
| 20260902011728 | 21 | 165 | 8.0 | 16.1 | 0.00 | 0.05 | 0.05 | 77 | 1017.3 |
| 20260902011659 | 21 | 155 | 8.0 | 16.1 | 0.00 | 0.05 | 0.05 | 77 | 1017.3 |
| 20260902011528 | 21 | 142 | 4.8 | 14.5 | 0.00 | 0.05 | 0.05 | 78 | 1017.3 |
| 20260902011443 | 21 | 172 | 4.8 | 17.7 | 0.00 | 0.05 | 0.05 | 78 | 1017.4 |
| 20260902011254 | 21 | 122 | 6.4 | 17.7 | 0.00 | 0.05 | 0.05 | 78 | 1017.4 |
| 20260902011215 | 21 | 205 | 6.4 | 17.7 | 0.00 | 0.05 | 0.05 | 78 | 1017.4 |
| 20260902011046 | 21 | 132 | 9.7 | 17.7 | 0.00 | 0.05 | 0.05 | 78 | 1017.3 |
| 20260902010938 | 20 | 134 | 9.7 | 17.7 | 0.00 | 0.05 | 0.05 | 79 | 1017.4 |
| 20260902010900 | 20 | 166 | 8.0 | 17.7 | 0.00 | 0.05 | 0.05 | 79 | 1017.3 |
| 20260902010752 | 20 | 159 | 8.0 | 17.7 | 0.00 | 0.05 | 0.05 | 80 | 1017.3 |
| 20260902010541 | 20 | 155 | 3.2 | 12.9 | 0.00 | 0.05 | 0.05 | 81 | 1017.3 |
| 20260902010440 | 20 | 173 | 4.8 | 12.9 | 0.00 | 0.05 | 0.05 | 81 | 1017.3 |
| 20260902010325 | 20 | 173 | 8.0 | 12.9 | 0.00 | 0.05 | 0.05 | 81 | 1017.3 |
| 20260902010247 | 20 | 182 | 8.0 | 12.9 | 0.00 | 0.05 | 0.05 | 81 | 1017.3 |
| 20260902010207 | 20 | 148 | 6.4 | 12.9 | 0.00 | 0.05 | 0.05 | 83 | 1017.3 |
| 20260902010111 | 20 | 205 | 4.8 | 12.9 | 0.00 | 0.05 | 0.05 | 83 | 1017.3 |
| 20260902010032 | 20 | 169 | 4.8 | 12.9 | 0.00 | 0.05 | 0.05 | 84 | 1017.3 |
| 20260902005902 | 19 | 154 | 4.8 | 12.9 | 0.00 | 0.05 | 0.05 | 84 | 1017.3 |
| 20260902005817 | 19 | 166 | 3.2 | 6.4 | 0.00 | 0.05 | 0.05 | 84 | 1017.3 |
| 20260902005647 | 19 | 199 | 0.0 | 6.4 | 0.00 | 0.05 | 0.05 | 85 | 1017.3 |
| 20260902005548 | 19 | 182 | 0.0 | 6.4 | 0.00 | 0.05 | 0.05 | 85 | 1017.3 |
| 20260902005511 | 19 | 182 | 1.6 | 6.4 | 0.00 | 0.05 | 0.05 | 85 | 1017.3 |
| 20260902005414 | 19 | 182 | 3.2 | 6.4 | 0.00 | 0.05 | 0.05 | 85 | 1017.3 |
| 20260902005340 | 19 | 188 | 1.6 | 6.4 | 0.00 | 0.05 | 0.05 | 86 | 1017.3 |
| 20260902005124 | 19 | 167 | 0.0 | 3.2 | 0.00 | 0.05 | 0.05 | 87 | 1017.3 |
| 20260902005025 | 19 | 153 | 0.0 | 3.2 | 0.00 | 0.05 | 0.05 | 86 | 1017.2 |
| 20260902004929 | 19 | 153 | 0.0 | 3.2 | 0.00 | 0.05 | 0.05 | 86 | 1017.2 |
| 20260902004852 | 19 | 153 | 0.0 | 3.2 | 0.00 | 0.05 | 0.05 | 87 | 1017.2 |
| 20260902004722 | 19 | 153 | 0.0 | 3.2 | 0.00 | 0.05 | 0.05 | 86 | 1017.2 |
| 20260902004637 | 19 | 153 | 0.0 | 3.2 | 0.00 | 0.05 | 0.05 | 86 | 1017.2 |
| 20260902004425 | 19 | 203 | 0.0 | 0.0 | 0.00 | 0.05 | 0.05 | 87 | 1017.2 |
| 20260902004351 | 19 | 203 | 0.0 | 0.0 | 0.00 | 0.05 | 0.05 | 87 | 1017.1 |
| 20260902004221 | 19 | 203 | 0.0 | 0.0 | 0.00 | 0.05 | 0.05 | 87 | 1017.2 |
| 20260902004146 | 19 | 203 | 0.0 | 0.0 | 0.00 | 0.05 | 0.05 | 87 | 1017.2 |
| 20260902004017 | 19 | 203 | 0.0 | 0.0 | 0.00 | 0.05 | 0.05 | 87 | 1017.2 |
| 20260902003933 | 19 | 203 | 0.0 | 0.0 | 0.00 | 0.05 | 0.05 | 87 | 1017.2 |
| 20260902003804 | 19 | 203 | 0.0 | 0.0 | 0.00 | 0.05 | 0.05 | 87 | 1017.2 |
| 20260902003724 | 19 | 203 | 0.0 | 0.0 | 0.00 | 0.05 | 0.05 | 87 | 1017.2 |
| 20260902003526 | 19 | 203 | 0.0 | 0.0 | 0.00 | 0.05 | 0.05 | 87 | 1017.2 |
| 20260902003448 | 19 | 203 | 0.0 | 0.0 | 0.00 | 0.05 | 0.05 | 87 | 1017.2 |
| 20260902003333 | 19 | 203 | 0.0 | 0.0 | 0.00 | 0.05 | 0.05 | 87 | 1017.2 |
| 20260902003254 | 19 | 203 | 0.0 | 0.0 | 0.00 | 0.05 | 0.05 | 87 | 1017.2 |
| 20260902003218 | 19 | 203 | 0.0 | 0.0 | 0.00 | 0.05 | 0.05 | 88 | 1017.2 |
| 20260902003119 | 19 | 203 | 0.0 | 0.0 | 0.00 | 0.05 | 0.05 | 87 | 1017.2 |
| 20260902003046 | 19 | 203 | 0.0 | 0.0 | 0.00 | 0.05 | 0.05 | 87 | 1017.2 |
| 20260902002914 | 19 | 203 | 0.0 | 0.0 | 0.00 | 0.05 | 0.05 | 87 | 1017.1 |
| 20260902002829 | 19 | 203 | 0.0 | 0.0 | 0.00 | 0.05 | 0.05 | 87 | 1017.1 |
| 20260902002640 | 19 | 203 | 0.0 | 0.0 | 0.00 | 0.05 | 0.05 | 87 | 1017.1 |
| 20260902002555 | 19 | 203 | 0.0 | 0.0 | 0.00 | 0.05 | 0.05 | 87 | 1017.0 |
| 20260902002404 | 19 | 203 | 0.0 | 0.0 | 0.00 | 0.05 | 0.05 | 87 | 1017.0 |
| 20260902002326 | 19 | 203 | 0.0 | 0.0 | 0.00 | 0.05 | 0.05 | 87 | 1017.0 |
| 20260902002129 | 19 | 203 | 0.0 | 0.0 | 0.00 | 0.05 | 0.05 | 86 | 1017.0 |
| 20260902002051 | 19 | 203 | 0.0 | 0.0 | 0.00 | 0.05 | 0.05 | 86 | 1017.0 |
| 20260902001936 | 19 | 203 | 0.0 | 0.0 | 0.00 | 0.05 | 0.05 | 86 | 1017.0 |
| 20260902001902 | 19 | 203 | 0.0 | 0.0 | 0.00 | 0.05 | 0.05 | 86 | 1017.0 |
| 20260902001731 | 20 | 203 | 0.0 | 3.2 | 0.00 | 0.05 | 0.05 | 87 | 1017.1 |
| 20260902001626 | 20 | 203 | 0.0 | 3.2 | 0.00 | 0.05 | 0.05 | 87 | 1017.1 |
| 20260902001454 | 20 | 203 | 0.0 | 3.2 | 0.00 | 0.05 | 0.05 | 86 | 1017.1 |
| 20260902001328 | 20 | 203 | 0.0 | 3.2 | 0.00 | 0.05 | 0.05 | 86 | 1017.0 |
| 20260902001230 | 20 | 203 | 0.0 | 3.2 | 0.00 | 0.05 | 0.05 | 86 | 1017.1 |
| 20260902001155 | 20 | 203 | 0.0 | 3.2 | 0.00 | 0.05 | 0.05 | 87 | 1017.1 |
| 20260902001117 | 20 | 203 | 0.0 | 3.2 | 0.00 | 0.05 | 0.05 | 86 | 1017.1 |
| 20260902000948 | 20 | 203 | 0.0 | 3.2 | 0.00 | 0.05 | 0.05 | 86 | 1017.1 |
| 20260902000915 | 20 | 203 | 0.0 | 3.2 | 0.00 | 0.05 | 0.05 | 86 | 1017.1 |
| 20260902000746 | 20 | 203 | 0.0 | 0.0 | 0.00 | 0.05 | 0.05 | 87 | 1017.2 |
| 20260902000711 | 20 | 203 | 0.0 | 0.0 | 0.00 | 0.05 | 0.05 | 87 | 1017.2 |
| 20260902000520 | 20 | 203 | 0.0 | 0.0 | 0.00 | 0.05 | 0.05 | 87 | 1017.3 |
| 20260902000415 | 20 | 203 | 0.0 | 0.0 | 0.00 | 0.05 | 0.05 | 87 | 1017.2 |
| 20260902000226 | 20 | 203 | 0.0 | 0.0 | 0.00 | 0.05 | 0.05 | 86 | 1017.2 |
| 20260902000138 | 20 | 203 | 0.0 | 0.0 | 0.00 | 0.05 | 0.05 | 86 | 1017.2 |
| 20260902000007 | 20 | 203 | 0.0 | 0.0 | 0.00 | 0.05 | 0.05 | 86 | 1017.2 |
| 20260901235930 | 20 | 203 | 0.0 | 0.0 | 0.00 | 0.05 | 0.05 | 86 | 1017.2 |
| 20260901235732 | 20 | 203 | 0.0 | 0.0 | 0.00 | 0.05 | 0.05 | 86 | 1017.2 |
| 20260901235654 | 20 | 203 | 0.0 | 0.0 | 0.00 | 0.05 | 0.05 | 86 | 1017.2 |
| 20260901235538 | 20 | 203 | 0.0 | 0.0 | 0.00 | 0.05 | 0.05 | 86 | 1017.2 |
| 20260901235504 | 20 | 203 | 0.0 | 0.0 | 0.00 | 0.05 | 0.05 | 86 | 1017.2 |
| 20260901235314 | 20 | 203 | 0.0 | 0.0 | 0.00 | 0.05 | 0.05 | 86 | 1017.1 |
| 20260901235228 | 20 | 203 | 0.0 | 0.0 | 0.00 | 0.05 | 0.05 | 86 | 1017.1 |
| 20260901235039 | 20 | 203 | 0.0 | 0.0 | 0.00 | 0.05 | 0.05 | 85 | 1017.2 |
| 20260901234934 | 20 | 203 | 0.0 | 0.0 | 0.00 | 0.05 | 0.05 | 85 | 1017.2 |
| 20260901234856 | 20 | 203 | 0.0 | 0.0 | 0.00 | 0.05 | 0.05 | 86 | 1017.2 |
| 20260901234801 | 20 | 203 | 0.0 | 0.0 | 0.00 | 0.05 | 0.05 | 86 | 1017.2 |
| 20260901234640 | 20 | 203 | 0.0 | 1.6 | 0.00 | 0.05 | 0.05 | 85 | 1017.2 |
| 20260901234523 | 20 | 203 | 0.0 | 3.2 | 0.00 | 0.05 | 0.05 | 85 | 1017.2 |
| 20260901234449 | 20 | 203 | 0.0 | 3.2 | 0.00 | 0.05 | 0.05 | 85 | 1017.1 |
| 20260901234223 | 20 | 203 | 0.0 | 3.2 | 0.00 | 0.05 | 0.05 | 85 | 1017.2 |
| 20260901234054 | 20 | 203 | 0.0 | 3.2 | 0.00 | 0.05 | 0.05 | 85 | 1017.2 |
| 20260901233948 | 20 | 203 | 0.0 | 3.2 | 0.00 | 0.05 | 0.05 | 85 | 1017.2 |
| 20260901233735 | 20 | 203 | 1.6 | 3.2 | 0.00 | 0.05 | 0.05 | 84 | 1017.2 |
| 20260901233649 | 20 | 203 | 0.0 | 3.2 | 0.00 | 0.05 | 0.05 | 84 | 1017.1 |
| 20260901233438 | 20 | 203 | 0.0 | 0.0 | 0.00 | 0.05 | 0.05 | 85 | 1017.1 |
| 20260901233333 | 20 | 203 | 0.0 | 0.0 | 0.00 | 0.05 | 0.05 | 85 | 1017.1 |
| 20260901233254 | 20 | 203 | 0.0 | 0.0 | 0.00 | 0.05 | 0.05 | 85 | 1017.1 |
| 20260901233218 | 20 | 203 | 0.0 | 0.0 | 0.00 | 0.05 | 0.05 | 85 | 1017.1 |
| 20260901233134 | 20 | 203 | 0.0 | 0.0 | 0.00 | 0.05 | 0.05 | 85 | 1017.1 |
| 20260901233002 | 20 | 203 | 0.0 | 0.0 | 0.00 | 0.05 | 0.05 | 84 | 1017.1 |
| 20260901232902 | 20 | 203 | 0.0 | 0.0 | 0.00 | 0.05 | 0.05 | 84 | 1017.1 |
| 20260901232756 | 20 | 203 | 0.0 | 0.0 | 0.00 | 0.05 | 0.05 | 83 | 1017.2 |
| 20260901232716 | 20 | 203 | 0.0 | 0.0 | 0.00 | 0.05 | 0.05 | 83 | 1017.2 |
| 20260901232638 | 20 | 203 | 0.0 | 0.0 | 0.00 | 0.05 | 0.05 | 83 | 1017.2 |
| 20260901232502 | 21 | 203 | 0.0 | 0.0 | 0.00 | 0.05 | 0.05 | 82 | 1017.2 |
| 20260901232423 | 21 | 203 | 0.0 | 0.0 | 0.00 | 0.05 | 0.05 | 82 | 1017.2 |
| 20260901232237 | 21 | 203 | 0.0 | 0.0 | 0.00 | 0.05 | 0.05 | 83 | 1017.2 |
| 20260901232123 | 21 | 203 | 0.0 | 0.0 | 0.00 | 0.05 | 0.05 | 83 | 1017.2 |
| 20260901232026 | 21 | 203 | 0.0 | 0.0 | 0.00 | 0.05 | 0.05 | 82 | 1017.2 |
| 20260901231948 | 21 | 203 | 0.0 | 0.0 | 0.00 | 0.05 | 0.05 | 81 | 1017.2 |
| 20260901231909 | 21 | 203 | 0.0 | 0.0 | 0.00 | 0.05 | 0.05 | 81 | 1017.2 |
| 20260901231812 | 21 | 203 | 0.0 | 0.0 | 0.00 | 0.05 | 0.05 | 82 | 1017.2 |
| 20260901231712 | 21 | 203 | 0.0 | 0.0 | 0.00 | 0.05 | 0.05 | 82 | 1017.2 |
| 20260901231633 | 21 | 203 | 0.0 | 0.0 | 0.00 | 0.05 | 0.05 | 81 | 1017.1 |
| 20260901231515 | 21 | 203 | 0.0 | 3.2 | 0.00 | 0.05 | 0.05 | 82 | 1017.1 |
| 20260901231437 | 21 | 203 | 0.0 | 3.2 | 0.00 | 0.05 | 0.05 | 81 | 1017.1 |
| 20260901231309 | 21 | 203 | 0.0 | 3.2 | 0.00 | 0.05 | 0.05 | 81 | 1017.1 |
| 20260901231225 | 21 | 203 | 0.0 | 3.2 | 0.00 | 0.05 | 0.05 | 81 | 1017.1 |
| 20260901231105 | 21 | 203 | 0.0 | 3.2 | 0.00 | 0.05 | 0.05 | 82 | 1017.1 |
| 20260901231026 | 21 | 203 | 0.0 | 3.2 | 0.00 | 0.05 | 0.05 | 82 | 1017.1 |
| 20260901230900 | 21 | 203 | 0.0 | 3.2 | 0.00 | 0.05 | 0.05 | 81 | 1017.0 |
| 20260901230815 | 21 | 203 | 0.0 | 3.2 | 0.00 | 0.05 | 0.05 | 80 | 1017.1 |
| 20260901230646 | 21 | 203 | 0.0 | 0.0 | 0.00 | 0.05 | 0.05 | 81 | 1017.0 |
| 20260901230547 | 21 | 203 | 0.0 | 0.0 | 0.00 | 0.05 | 0.05 | 81 | 1017.0 |
| 20260901230410 | 21 | 203 | 0.0 | 1.6 | 0.00 | 0.05 | 0.05 | 81 | 1017.0 |
| 20260901230331 | 21 | 203 | 0.0 | 1.6 | 0.00 | 0.05 | 0.05 | 81 | 1017.0 |
| 20260901230211 | 21 | 203 | 0.0 | 1.6 | 0.00 | 0.05 | 0.05 | 81 | 1016.9 |
| 20260901230126 | 21 | 203 | 0.0 | 1.6 | 0.00 | 0.05 | 0.05 | 80 | 1016.9 |
| 20260901225956 | 21 | 203 | 0.0 | 1.6 | 0.00 | 0.05 | 0.05 | 80 | 1016.9 |
| 20260901225917 | 21 | 203 | 0.0 | 1.6 | 0.00 | 0.05 | 0.05 | 79 | 1016.9 |
| 20260901225749 | 21 | 203 | 0.0 | 3.2 | 0.00 | 0.05 | 0.05 | 79 | 1016.9 |
| 20260901225626 | 21 | 203 | 0.0 | 3.2 | 0.00 | 0.05 | 0.05 | 78 | 1016.9 |
| 20260901225531 | 21 | 203 | 0.0 | 3.2 | 0.00 | 0.05 | 0.05 | 79 | 1016.9 |
| 20260901225452 | 21 | 203 | 0.0 | 3.2 | 0.00 | 0.05 | 0.05 | 77 | 1016.8 |
| 20260901225413 | 21 | 203 | 0.0 | 3.2 | 0.00 | 0.05 | 0.05 | 77 | 1016.8 |
| 20260901225318 | 21 | 203 | 0.0 | 3.2 | 0.00 | 0.05 | 0.05 | 77 | 1016.8 |
| 20260901225218 | 21 | 203 | 0.0 | 3.2 | 0.00 | 0.05 | 0.05 | 78 | 1016.7 |
| 20260901225047 | 21 | 203 | 1.6 | 11.3 | 0.00 | 0.05 | 0.05 | 77 | 1016.7 |
| 20260901224942 | 21 | 203 | 1.6 | 11.3 | 0.00 | 0.05 | 0.05 | 77 | 1016.7 |
| 20260901224903 | 21 | 200 | 0.0 | 11.3 | 0.00 | 0.05 | 0.05 | 77 | 1016.8 |
| 20260901224817 | 21 | 200 | 0.0 | 11.3 | 0.00 | 0.05 | 0.05 | 78 | 1016.8 |
| 20260901224739 | 21 | 200 | 0.0 | 11.3 | 0.00 | 0.05 | 0.05 | 78 | 1016.8 |